EA1FJG Weather Reports


Display with metric or nautical units.
time (UTC)temp
F
wind
direction
speed
MPH
gust
MPH
rain 1hr
in
rain 24hr
in
rain mn
in
humidity
%
barometer
mb
20260905180003 87 357 0.0 1.0 0.00 0.00 0.00 51 1018.5
20260905175903 87 356 0.0 1.0 0.00 0.00 0.00 51 1018.4
20260905175824 87 353 0.0 1.0 0.00 0.00 0.00 49 1018.5
20260905175703 87 339 0.0 2.0 0.00 0.00 0.00 52 1018.6
20260905175603 87 333 0.0 2.0 0.00 0.00 0.00 50 1018.3
20260905175503 87 330 0.0 2.0 0.00 0.00 0.00 52 1018.5
20260905175403 87 330 0.0 2.0 0.00 0.00 0.00 50 1018.5
20260905175324 87 332 1.0 2.0 0.00 0.00 0.00 50 1018.4
20260905175203 87 332 1.0 2.0 0.00 0.00 0.00 51 1018.5
20260905175103 87 333 1.0 3.0 0.00 0.00 0.00 52 1018.4
20260905175003 87 332 1.0 3.0 0.00 0.00 0.00 50 1018.4
20260905174903 87 333 1.0 3.0 0.00 0.00 0.00 50 1018.2
20260905174824 87 332 1.0 3.0 0.00 0.00 0.00 49 1018.4
20260905174724 86 336 1.0 3.0 0.00 0.00 0.00 49 1018.4
20260905174603 86 339 1.0 3.0 0.00 0.00 0.00 49 1018.4
20260905174503 86 341 1.0 3.0 0.00 0.00 0.00 50 1018.2
20260905174403 86 341 2.0 3.0 0.00 0.00 0.00 49 1018.4
20260905174303 86 342 2.0 3.0 0.00 0.00 0.00 49 1018.3
20260905174203 86 335 2.0 3.0 0.00 0.00 0.00 49 1018.2
20260905174103 86 332 2.0 3.0 0.00 0.00 0.00 50 1018.2
20260905174024 85 335 2.0 3.0 0.00 0.00 0.00 51 1018.2
20260905173903 85 329 2.0 3.0 0.00 0.00 0.00 51 1018.2
20260905173803 86 315 2.0 7.0 0.00 0.00 0.00 50 1018.1
20260905173703 86 312 3.0 7.0 0.00 0.00 0.00 50 1018.2
20260905173603 86 314 3.0 7.0 0.00 0.00 0.00 50 1018.1
20260905173503 86 307 3.0 7.0 0.00 0.00 0.00 50 1018.3
20260905173403 86 307 3.0 7.0 0.00 0.00 0.00 51 1018.2
20260905173303 85 302 3.0 7.0 0.00 0.00 0.00 50 1018.1
20260905173203 85 297 3.0 7.0 0.00 0.00 0.00 51 1018.1
20260905173103 85 292 3.0 7.0 0.00 0.00 0.00 51 1018.2
20260905173003 85 292 3.0 7.0 0.00 0.00 0.00 51 1018.2
20260905172903 85 290 3.0 7.0 0.00 0.00 0.00 51 1018.1
20260905172804 85 296 3.0 7.0 0.00 0.00 0.00 50 1018.2
20260905172704 85 304 3.0 7.0 0.00 0.00 0.00 51 1018.0
20260905172603 85 304 3.0 7.0 0.00 0.00 0.00 51 1018.1
20260905172524 86 299 3.0 7.0 0.00 0.00 0.00 51 1018.1
20260905172424 86 304 3.0 7.0 0.00 0.00 0.00 51 1018.0
20260905172305 86 302 2.0 7.0 0.00 0.00 0.00 51 1017.9
20260905172204 86 305 2.0 7.0 0.00 0.00 0.00 51 1018.0
20260905172103 86 318 2.0 4.0 0.00 0.00 0.00 51 1017.9
20260905172003 86 327 2.0 4.0 0.00 0.00 0.00 51 1018.0
20260905171903 86 325 2.0 4.0 0.00 0.00 0.00 51 1017.6
20260905171804 86 326 2.0 4.0 0.00 0.00 0.00 51 1017.9
20260905171703 86 321 1.0 4.0 0.00 0.00 0.00 53 1017.8
20260905171624 86 327 1.0 4.0 0.00 0.00 0.00 53 1017.8
20260905171503 86 333 1.0 4.0 0.00 0.00 0.00 53 1017.9
20260905171403 86 340 1.0 2.0 0.00 0.00 0.00 59 1018.1
20260905171303 86 334 1.0 2.0 0.00 0.00 0.00 58 1017.7
20260905171203 86 331 1.0 2.0 0.00 0.00 0.00 58 1017.9
20260905171103 86 329 1.0 3.0 0.00 0.00 0.00 58 1018.0
20260905171003 86 328 1.0 3.0 0.00 0.00 0.00 56 1017.9
20260905170903 86 326 1.0 3.0 0.00 0.00 0.00 58 1017.8
20260905170803 86 316 2.0 6.0 0.00 0.00 0.00 58 1017.8
20260905170703 86 319 2.0 6.0 0.00 0.00 0.00 57 1017.9
20260905170624 86 318 2.0 6.0 0.00 0.00 0.00 57 1017.6
20260905170503 86 316 2.0 6.0 0.00 0.00 0.00 57 1017.6
20260905170403 86 310 2.0 6.0 0.00 0.00 0.00 56 1017.8
20260905170303 86 310 2.0 6.0 0.00 0.00 0.00 57 1017.8
20260905170203 86 309 2.0 6.0 0.00 0.00 0.00 56 1017.8
20260905170003 86 308 2.0 6.0 0.00 0.00 0.00 56 1017.9
20260905165903 86 307 2.0 6.0 0.00 0.00 0.00 56 1017.7
20260905165803 87 306 2.0 6.0 0.00 0.00 0.00 55 1017.7
20260905165703 87 313 1.0 4.0 0.00 0.00 0.00 55 1017.6
20260905165603 87 308 2.0 4.0 0.00 0.00 0.00 55 1017.8
20260905165504 87 304 2.0 4.0 0.00 0.00 0.00 54 1017.8
20260905165403 87 306 2.0 4.0 0.00 0.00 0.00 53 1017.8
20260905165306 87 307 1.0 4.0 0.00 0.00 0.00 55 1017.7
20260905165203 87 305 1.0 4.0 0.00 0.00 0.00 56 1017.8
20260905165124 87 307 1.0 4.0 0.00 0.00 0.00 57 1017.7
20260905165003 87 309 2.0 4.0 0.00 0.00 0.00 58 1017.8
20260905164903 86 309 2.0 4.0 0.00 0.00 0.00 60 1017.7
20260905164803 86 310 2.0 4.0 0.00 0.00 0.00 61 1017.7
20260905164703 85 312 2.0 4.0 0.00 0.00 0.00 63 1017.7
20260905164603 85 314 2.0 4.0 0.00 0.00 0.00 62 1017.8
20260905164503 85 320 2.0 3.0 0.00 0.00 0.00 63 1017.9
20260905164424 85 330 1.0 3.0 0.00 0.00 0.00 64 1017.7
20260905164324 85 335 1.0 3.0 0.00 0.00 0.00 64 1017.8
20260905164203 85 342 1.0 3.0 0.00 0.00 0.00 65 1017.7
20260905164103 85 345 1.0 3.0 0.00 0.00 0.00 64 1017.7
20260905164003 85 351 1.0 3.0 0.00 0.00 0.00 65 1017.8
20260905163903 85 351 2.0 3.0 0.00 0.00 0.00 65 1017.6
20260905163803 84 354 1.0 3.0 0.00 0.00 0.00 65 1017.4
20260905163703 84 354 2.0 3.0 0.00 0.00 0.00 65 1017.6
20260905163624 84 354 2.0 3.0 0.00 0.00 0.00 65 1017.6
20260905163503 85 352 2.0 4.0 0.00 0.00 0.00 65 1017.6
20260905163424 85 352 2.0 4.0 0.00 0.00 0.00 65 1017.6
20260905163303 85 354 3.0 4.0 0.00 0.00 0.00 64 1017.5
20260905163203 85 354 3.0 4.0 0.00 0.00 0.00 64 1017.5
20260905163103 85 354 3.0 4.0 0.00 0.00 0.00 64 1017.4
20260905163003 85 354 3.0 4.0 0.00 0.00 0.00 64 1017.4
20260905162903 85 352 3.0 4.0 0.00 0.00 0.00 64 1017.5
20260905162803 85 351 3.0 4.0 0.00 0.00 0.00 64 1017.6
20260905162704 85 350 3.0 4.0 0.00 0.00 0.00 64 1017.4
20260905162603 85 350 3.0 4.0 0.00 0.00 0.00 64 1017.4
20260905162503 85 351 3.0 4.0 0.00 0.00 0.00 63 1017.3
20260905162403 85 352 3.0 4.0 0.00 0.00 0.00 63 1017.3
20260905162305 86 351 3.0 4.0 0.00 0.00 0.00 63 1017.5
20260905162203 86 350 3.0 4.0 0.00 0.00 0.00 62 1017.5
20260905162103 86 351 2.0 4.0 0.00 0.00 0.00 63 1017.5
20260905162004 86 352 2.0 4.0 0.00 0.00 0.00 62 1017.6
20260905161903 86 353 2.0 4.0 0.00 0.00 0.00 62 1017.3
20260905161803 87 353 2.0 4.0 0.00 0.00 0.00 61 1017.4
20260905161703 87 358 2.0 3.0 0.00 0.00 0.00 60 1017.4
20260905161603 87 355 2.0 6.0 0.00 0.00 0.00 60 1017.4
20260905161503 87 355 2.0 6.0 0.00 0.00 0.00 59 1017.5
20260905161403 87 356 2.0 6.0 0.00 0.00 0.00 61 1017.3
20260905161304 87 357 2.0 6.0 0.00 0.00 0.00 60 1017.4
20260905161203 87 357 2.0 6.0 0.00 0.00 0.00 60 1017.4
20260905161103 87 358 2.0 6.0 0.00 0.00 0.00 59 1017.4
20260905161003 87 358 2.0 6.0 0.00 0.00 0.00 60 1017.4
20260905160903 87 356 2.0 6.0 0.00 0.00 0.00 60 1017.4
20260905160803 87 352 2.0 6.0 0.00 0.00 0.00 60 1017.4
20260905160703 87 350 2.0 6.0 0.00 0.00 0.00 61 1017.3
20260905160603 87 351 2.0 6.0 0.00 0.00 0.00 59 1017.3
20260905160503 87 354 2.0 4.0 0.00 0.00 0.00 60 1017.3
20260905160403 87 354 2.0 4.0 0.00 0.00 0.00 61 1017.2
20260905160303 87 354 2.0 4.0 0.00 0.00 0.00 60 1017.2
20260905160203 87 354 2.0 4.0 0.00 0.00 0.00 60 1017.2
20260905160124 87 353 2.0 4.0 0.00 0.00 0.00 59 1017.3
20260905160024 87 353 2.0 4.0 0.00 0.00 0.00 59 1017.2
20260905155903 88 354 2.0 4.0 0.00 0.00 0.00 59 1017.2
20260905155803 88 358 2.0 4.0 0.00 0.00 0.00 59 1017.4
20260905155703 88 357 2.0 4.0 0.00 0.00 0.00 58 1017.4
20260905155624 88 355 2.0 4.0 0.00 0.00 0.00 58 1017.3
20260905155524 88 357 2.0 4.0 0.00 0.00 0.00 58 1017.1
20260905155403 89 358 2.0 4.0 0.00 0.00 0.00 57 1017.3
20260905155306 89 359 2.0 4.0 0.00 0.00 0.00 57 1017.4
20260905155203 89 359 2.0 4.0 0.00 0.00 0.00 57 1017.3
20260905155103 89 358 2.0 4.0 0.00 0.00 0.00 57 1017.3
20260905155003 89 359 2.0 6.0 0.00 0.00 0.00 56 1017.4
20260905154903 90 359 2.0 6.0 0.00 0.00 0.00 56 1017.4
20260905154824 90 359 2.0 6.0 0.00 0.00 0.00 56 1017.4
20260905154703 89 360 2.0 6.0 0.00 0.00 0.00 57 1017.4
20260905154603 89 1 3.0 6.0 0.00 0.00 0.00 56 1017.2
20260905154503 89 1 3.0 6.0 0.00 0.00 0.00 56 1017.2
20260905154403 89 360 3.0 6.0 0.00 0.00 0.00 56 1017.2
20260905154303 89 2 3.0 6.0 0.00 0.00 0.00 57 1017.2
20260905154203 89 1 3.0 6.0 0.00 0.00 0.00 56 1017.4
20260905154103 89 2 3.0 6.0 0.00 0.00 0.00 57 1017.5
20260905154003 89 3 2.0 6.0 0.00 0.00 0.00 56 1017.4
20260905153924 88 2 2.0 4.0 0.00 0.00 0.00 57 1017.5
20260905153803 88 3 2.0 4.0 0.00 0.00 0.00 57 1017.6
20260905153703 88 2 2.0 4.0 0.00 0.00 0.00 57 1017.4
20260905153603 88 3 3.0 4.0 0.00 0.00 0.00 58 1017.4
20260905153503 88 4 3.0 4.0 0.00 0.00 0.00 57 1017.4
20260905153403 88 5 2.0 4.0 0.00 0.00 0.00 58 1017.4
20260905153324 88 5 2.0 4.0 0.00 0.00 0.00 58 1017.4
20260905153224 88 2 2.0 3.0 0.00 0.00 0.00 58 1017.5
20260905153103 88 359 2.0 4.0 0.00 0.00 0.00 58 1017.4
20260905153003 88 359 2.0 4.0 0.00 0.00 0.00 58 1017.4
20260905152902 88 352 3.0 6.0 0.00 0.00 0.00 58 1017.6
20260905152803 88 351 3.0 6.0 0.00 0.00 0.00 59 1017.5
20260905152703 88 349 3.0 6.0 0.00 0.00 0.00 59 1017.7
20260905152602 88 350 3.0 6.0 0.00 0.00 0.00 58 1017.4
20260905152503 88 348 3.0 6.0 0.00 0.00 0.00 58 1017.6
20260905152402 88 348 3.0 6.0 0.00 0.00 0.00 59 1017.5
20260905152306 88 344 4.0 7.0 0.00 0.00 0.00 58 1017.4
20260905152203 89 343 4.0 7.0 0.00 0.00 0.00 58 1017.5
20260905152102 89 343 4.0 7.0 0.00 0.00 0.00 57 1017.6
20260905152024 89 345 4.0 7.0 0.00 0.00 0.00 57 1017.5
20260905151902 89 347 4.0 7.0 0.00 0.00 0.00 57 1017.5
20260905151802 89 346 4.0 7.0 0.00 0.00 0.00 58 1017.5
20260905151703 89 347 4.0 7.0 0.00 0.00 0.00 58 1017.5
20260905151602 89 349 4.0 7.0 0.00 0.00 0.00 58 1017.5
20260905151502 89 349 4.0 7.0 0.00 0.00 0.00 57 1017.5
20260905151403 89 347 4.0 7.0 0.00 0.00 0.00 57 1017.6
20260905151324 89 347 4.0 7.0 0.00 0.00 0.00 57 1017.6
20260905151202 89 349 4.0 7.0 0.00 0.00 0.00 58 1017.5
20260905151102 89 348 4.0 7.0 0.00 0.00 0.00 58 1017.6
20260905151024 89 348 4.0 7.0 0.00 0.00 0.00 58 1017.6
20260905150903 89 349 4.0 7.0 0.00 0.00 0.00 58 1017.6
20260905150802 89 349 4.0 7.0 0.00 0.00 0.00 58 1017.5
20260905150723 89 350 4.0 7.0 0.00 0.00 0.00 58 1017.5
20260905150602 89 350 4.0 7.0 0.00 0.00 0.00 59 1017.7
20260905150503 90 348 4.0 7.0 0.00 0.00 0.00 58 1017.6
20260905150402 90 349 3.0 7.0 0.00 0.00 0.00 57 1017.6
20260905150303 90 349 3.0 7.0 0.00 0.00 0.00 57 1017.8
20260905150203 90 348 3.0 7.0 0.00 0.00 0.00 57 1017.7
20260905150003 91 345 3.0 7.0 0.00 0.00 0.00 57 1017.7
20260905145903 91 341 2.0 4.0 0.00 0.00 0.00 56 1017.6
20260905145824 91 341 2.0 4.0 0.00 0.00 0.00 56 1017.6
20260905145703 91 341 2.0 4.0 0.00 0.00 0.00 57 1017.6
20260905145603 91 340 2.0 4.0 0.00 0.00 0.00 56 1017.6
20260905145503 91 340 2.0 4.0 0.00 0.00 0.00 57 1017.5
20260905145403 91 340 2.0 4.0 0.00 0.00 0.00 57 1017.5
20260905145306 91 335 2.0 4.0 0.00 0.00 0.00 57 1017.6
20260905145203 91 337 2.0 4.0 0.00 0.00 0.00 56 1017.6
20260905145103 92 329 2.0 4.0 0.00 0.00 0.00 57 1017.6
20260905145003 91 332 2.0 4.0 0.00 0.00 0.00 56 1017.8
20260905144902 91 332 2.0 4.0 0.00 0.00 0.00 59 1017.5
20260905144824 91 328 2.0 4.0 0.00 0.00 0.00 58 1017.7
20260905144703 90 327 2.0 4.0 0.00 0.00 0.00 58 1017.7
20260905144603 90 325 2.0 4.0 0.00 0.00 0.00 60 1017.6
20260905144524 90 317 2.0 4.0 0.00 0.00 0.00 58 1017.7
20260905144403 90 321 2.0 4.0 0.00 0.00 0.00 57 1017.6
20260905144303 90 323 2.0 4.0 0.00 0.00 0.00 58 1017.8
20260905144224 90 322 2.0 4.0 0.00 0.00 0.00 59 1017.8
20260905144103 90 322 3.0 4.0 0.00 0.00 0.00 57 1017.5
20260905144002 90 334 3.0 6.0 0.00 0.00 0.00 57 1017.5
20260905143903 90 337 3.0 6.0 0.00 0.00 0.00 57 1017.8
20260905143802 90 344 3.0 6.0 0.00 0.00 0.00 57 1017.5
20260905143703 89 344 3.0 6.0 0.00 0.00 0.00 59 1017.7
20260905143603 89 340 3.0 6.0 0.00 0.00 0.00 59 1017.6
20260905143503 89 345 3.0 6.0 0.00 0.00 0.00 60 1017.5
20260905143424 89 343 3.0 6.0 0.00 0.00 0.00 60 1017.7
20260905143324 89 334 3.0 6.0 0.00 0.00 0.00 61 1017.7
20260905143224 89 334 3.0 6.0 0.00 0.00 0.00 60 1017.8
20260905143103 89 334 2.0 6.0 0.00 0.00 0.00 59 1017.8
20260905143003 89 333 2.0 6.0 0.00 0.00 0.00 59 1017.9
20260905142903 90 327 2.0 6.0 0.00 0.00 0.00 58 1017.8
20260905142803 90 327 2.0 6.0 0.00 0.00 0.00 58 1017.8
20260905142702 90 325 2.0 6.0 0.00 0.00 0.00 57 1018.0
20260905142603 90 333 2.0 6.0 0.00 0.00 0.00 57 1017.7
20260905142502 90 331 2.0 6.0 0.00 0.00 0.00 60 1017.8
20260905142403 90 333 2.0 6.0 0.00 0.00 0.00 58 1017.7
20260905142305 90 343 2.0 4.0 0.00 0.00 0.00 59 1017.8
20260905142224 90 343 2.0 4.0 0.00 0.00 0.00 59 1017.8
20260905142103 90 344 2.0 4.0 0.00 0.00 0.00 59 1017.9
20260905142003 90 338 3.0 4.0 0.00 0.00 0.00 59 1017.8
20260905141924 90 338 3.0 6.0 0.00 0.00 0.00 60 1017.8
20260905141803 90 338 3.0 6.0 0.00 0.00 0.00 59 1017.6
20260905141702 90 338 3.0 6.0 0.00 0.00 0.00 56 1017.8
20260905141603 90 337 3.0 6.0 0.00 0.00 0.00 58 1017.7
20260905141503 90 337 3.0 6.0 0.00 0.00 0.00 58 1018.0
20260905141403 90 339 3.0 6.0 0.00 0.00 0.00 58 1017.9
20260905141303 90 336 3.0 6.0 0.00 0.00 0.00 57 1017.8
20260905141203 91 334 3.0 6.0 0.00 0.00 0.00 58 1017.9
20260905141103 91 327 3.0 6.0 0.00 0.00 0.00 58 1017.9
20260905141003 91 329 3.0 6.0 0.00 0.00 0.00 56 1017.9
20260905140924 91 329 3.0 6.0 0.00 0.00 0.00 56 1017.9
20260905140803 91 325 2.0 6.0 0.00 0.00 0.00 58 1017.8
20260905140703 91 326 2.0 6.0 0.00 0.00 0.00 58 1018.0
20260905140603 91 326 2.0 6.0 0.00 0.00 0.00 58 1018.0
20260905140503 91 323 2.0 6.0 0.00 0.00 0.00 57 1017.9
20260905140424 91 325 2.0 6.0 0.00 0.00 0.00 60 1017.8
20260905140303 91 324 2.0 6.0 0.00 0.00 0.00 57 1018.0
20260905140202 91 323 2.0 6.0 0.00 0.00 0.00 57 1017.8
20260905140003 91 337 2.0 6.0 0.00 0.00 0.00 58 1018.1
20260905135903 91 342 2.0 6.0 0.00 0.00 0.00 58 1017.9
20260905135803 91 342 2.0 6.0 0.00 0.00 0.00 58 1017.9
20260905135703 91 342 2.0 6.0 0.00 0.00 0.00 59 1017.9
20260905135624 91 342 3.0 6.0 0.00 0.00 0.00 57 1017.9
20260905135524 91 346 3.0 6.0 0.00 0.00 0.00 58 1017.9
20260905135403 90 345 2.0 4.0 0.00 0.00 0.00 59 1017.9
20260905135306 90 347 3.0 6.0 0.00 0.00 0.00 59 1017.9
20260905135203 90 346 3.0 6.0 0.00 0.00 0.00 57 1017.9
20260905135103 91 343 3.0 6.0 0.00 0.00 0.00 59 1018.0
20260905135003 91 344 3.0 6.0 0.00 0.00 0.00 58 1018.0
20260905134903 91 343 3.0 6.0 0.00 0.00 0.00 58 1018.1
20260905134803 91 342 2.0 6.0 0.00 0.00 0.00 59 1018.0
20260905134703 91 343 2.0 6.0 0.00 0.00 0.00 57 1018.0
20260905134603 91 342 2.0 6.0 0.00 0.00 0.00 57 1017.9
20260905134503 91 343 2.0 6.0 0.00 0.00 0.00 58 1018.0
20260905134424 92 344 2.0 6.0 0.00 0.00 0.00 56 1018.0
20260905134302 92 346 2.0 3.0 0.00 0.00 0.00 57 1018.0
20260905134224 92 346 2.0 3.0 0.00 0.00 0.00 56 1018.1
20260905134103 92 347 2.0 3.0 0.00 0.00 0.00 56 1018.0
20260905134003 92 350 2.0 4.0 0.00 0.00 0.00 57 1018.1
20260905133924 91 351 2.0 4.0 0.00 0.00 0.00 57 1018.1
20260905133803 91 351 2.0 4.0 0.00 0.00 0.00 59 1017.9
20260905133703 91 350 3.0 4.0 0.00 0.00 0.00 57 1018.0
20260905133603 91 350 3.0 4.0 0.00 0.00 0.00 58 1018.0
20260905133503 91 348 3.0 4.0 0.00 0.00 0.00 58 1018.2
20260905133403 91 348 2.0 4.0 0.00 0.00 0.00 58 1018.2
20260905133324 92 348 2.0 4.0 0.00 0.00 0.00 58 1018.0
20260905133203 92 348 2.0 4.0 0.00 0.00 0.00 58 1017.9
20260905133103 92 347 2.0 4.0 0.00 0.00 0.00 56 1018.0
20260905133003 92 347 2.0 4.0 0.00 0.00 0.00 57 1018.1
20260905132903 92 347 2.0 4.0 0.00 0.00 0.00 57 1018.3
20260905132803 92 345 2.0 4.0 0.00 0.00 0.00 57 1018.2
20260905132724 92 346 2.0 4.0 0.00 0.00 0.00 57 1018.3
20260905132603 91 346 2.0 4.0 0.00 0.00 0.00 57 1018.1
20260905132503 92 347 2.0 4.0 0.00 0.00 0.00 57 1018.2
20260905132403 92 347 2.0 4.0 0.00 0.00 0.00 55 1018.1
20260905132305 92 347 2.0 3.0 0.00 0.00 0.00 57 1018.2
20260905132203 92 347 2.0 3.0 0.00 0.00 0.00 56 1018.2
20260905132103 92 347 2.0 4.0 0.00 0.00 0.00 59 1018.2
20260905132003 92 347 2.0 4.0 0.00 0.00 0.00 59 1018.2
20260905131903 92 347 2.0 4.0 0.00 0.00 0.00 57 1018.2
20260905131803 92 348 2.0 4.0 0.00 0.00 0.00 58 1018.0
20260905131703 92 348 2.0 4.0 0.00 0.00 0.00 58 1018.0
20260905131603 91 343 2.0 4.0 0.00 0.00 0.00 59 1018.2
20260905131503 91 343 2.0 4.0 0.00 0.00 0.00 59 1018.2
20260905131403 91 343 2.0 4.0 0.00 0.00 0.00 57 1018.1
20260905131324 91 342 2.0 4.0 0.00 0.00 0.00 58 1018.2
20260905131203 91 342 2.0 4.0 0.00 0.00 0.00 57 1018.2
20260905131103 91 343 2.0 4.0 0.00 0.00 0.00 55 1018.3
20260905131003 91 343 2.0 4.0 0.00 0.00 0.00 58 1018.2
20260905130903 91 344 2.0 4.0 0.00 0.00 0.00 57 1018.4
20260905130803 91 343 2.0 4.0 0.00 0.00 0.00 56 1018.1
20260905130703 91 344 2.0 4.0 0.00 0.00 0.00 57 1018.4
20260905130603 91 347 2.0 4.0 0.00 0.00 0.00 57 1018.4
20260905130503 91 347 2.0 4.0 0.00 0.00 0.00 57 1018.4
20260905130403 90 347 2.0 4.0 0.00 0.00 0.00 58 1018.3
20260905130303 90 347 2.0 4.0 0.00 0.00 0.00 57 1018.4
20260905130203 90 347 2.0 4.0 0.00 0.00 0.00 57 1018.4
20260905130003 91 347 1.0 3.0 0.00 0.00 0.00 57 1018.4
20260905125903 91 346 1.0 3.0 0.00 0.00 0.00 58 1018.4
20260905125803 91 345 1.0 3.0 0.00 0.00 0.00 57 1018.4
20260905125724 91 346 1.0 3.0 0.00 0.00 0.00 57 1018.5
20260905125603 91 346 1.0 3.0 0.00 0.00 0.00 59 1018.5
20260905125524 90 346 2.0 4.0 0.00 0.00 0.00 60 1018.3
20260905125403 90 346 2.0 4.0 0.00 0.00 0.00 57 1018.5
20260905125305 90 347 2.0 4.0 0.00 0.00 0.00 58 1018.3
20260905125203 90 347 1.0 4.0 0.00 0.00 0.00 58 1018.3
20260905125103 90 347 2.0 4.0 0.00 0.00 0.00 60 1018.3
20260905125003 90 347 2.0 4.0 0.00 0.00 0.00 57 1018.3
20260905124903 90 347 2.0 4.0 0.00 0.00 0.00 58 1018.5
20260905124803 90 347 2.0 4.0 0.00 0.00 0.00 59 1018.4
20260905124703 90 348 2.0 4.0 0.00 0.00 0.00 59 1018.5
20260905124603 90 348 2.0 4.0 0.00 0.00 0.00 58 1018.4
20260905124503 90 348 2.0 4.0 0.00 0.00 0.00 58 1018.3
20260905124403 90 348 2.0 6.0 0.00 0.00 0.00 58 1018.4
20260905124303 90 347 2.0 6.0 0.00 0.00 0.00 60 1018.3
20260905124203 89 347 2.0 6.0 0.00 0.00 0.00 60 1018.6
20260905124104 90 347 2.0 6.0 0.00 0.00 0.00 59 1018.5
20260905124024 90 347 2.0 6.0 0.00 0.00 0.00 58 1018.7
20260905123903 90 347 2.0 6.0 0.00 0.00 0.00 58 1018.5
20260905123803 90 346 2.0 6.0 0.00 0.00 0.00 61 1018.5
20260905123703 90 334 2.0 6.0 0.00 0.00 0.00 61 1018.6
20260905123603 90 328 2.0 6.0 0.00 0.00 0.00 59 1018.5
20260905123503 90 326 1.0 6.0 0.00 0.00 0.00 59 1018.6
20260905123403 90 323 1.0 4.0 0.00 0.00 0.00 60 1018.6
20260905123324 90 324 1.0 4.0 0.00 0.00 0.00 59 1018.6
20260905123203 90 323 1.0 4.0 0.00 0.00 0.00 64 1018.6
20260905123103 90 322 1.0 4.0 0.00 0.00 0.00 63 1018.6
20260905123003 89 324 2.0 4.0 0.00 0.00 0.00 62 1018.7
20260905122903 89 327 2.0 4.0 0.00 0.00 0.00 61 1018.6
20260905122803 89 326 2.0 4.0 0.00 0.00 0.00 62 1018.6
20260905122703 89 336 2.0 3.0 0.00 0.00 0.00 61 1018.7
20260905122603 89 342 2.0 3.0 0.00 0.00 0.00 64 1018.6
20260905122524 89 342 2.0 3.0 0.00 0.00 0.00 62 1018.7
20260905122403 89 342 2.0 3.0 0.00 0.00 0.00 62 1018.6
20260905122306 89 340 2.0 3.0 0.00 0.00 0.00 62 1018.6
20260905122203 89 339 2.0 3.0 0.00 0.00 0.00 61 1018.7
20260905122103 89 339 2.0 3.0 0.00 0.00 0.00 61 1018.9
20260905122024 89 339 2.0 3.0 0.00 0.00 0.00 61 1018.9
20260905121903 89 338 2.0 4.0 0.00 0.00 0.00 63 1018.7
20260905121803 89 338 2.0 4.0 0.00 0.00 0.00 63 1018.7
20260905121703 89 340 2.0 4.0 0.00 0.00 0.00 64 1018.7
20260905121603 89 341 2.0 4.0 0.00 0.00 0.00 61 1018.8
20260905121503 89 341 2.0 4.0 0.00 0.00 0.00 62 1018.8
20260905121403 89 340 2.0 4.0 0.00 0.00 0.00 64 1018.9
20260905121324 88 341 2.0 4.0 0.00 0.00 0.00 64 1018.9
20260905121224 88 341 2.0 4.0 0.00 0.00 0.00 64 1018.7
20260905121103 88 342 2.0 4.0 0.00 0.00 0.00 63 1018.8
20260905121003 88 342 2.0 4.0 0.00 0.00 0.00 62 1018.8
20260905120903 88 343 2.0 4.0 0.00 0.00 0.00 62 1018.9
20260905120803 88 343 2.0 4.0 0.00 0.00 0.00 66 1018.9
20260905120703 88 343 2.0 4.0 0.00 0.00 0.00 64 1018.9
20260905120603 88 343 2.0 4.0 0.00 0.00 0.00 65 1018.8
20260905120524 88 343 2.0 4.0 0.00 0.00 0.00 63 1019.1
20260905120424 89 341 2.0 6.0 0.00 0.00 0.00 64 1018.9
20260905120303 88 341 2.0 6.0 0.00 0.00 0.00 62 1018.8
20260905120224 88 341 2.0 6.0 0.00 0.00 0.00 63 1018.9
20260905120003 88 342 2.0 6.0 0.00 0.00 0.00 64 1019.0
20260905115924 88 342 2.0 6.0 0.00 0.00 0.00 65 1019.2
20260905115824 88 342 2.0 6.0 0.00 0.00 0.00 65 1019.1
20260905115703 88 341 2.0 6.0 0.00 0.00 0.00 64 1019.0
20260905115624 89 340 2.0 6.0 0.00 0.00 0.00 64 1018.9
20260905115503 89 337 1.0 6.0 0.00 0.00 0.00 63 1019.1
20260905115403 89 336 1.0 6.0 0.00 0.00 0.00 62 1019.2
20260905115306 89 337 1.0 4.0 0.00 0.00 0.00 65 1019.1
20260905115203 89 338 1.0 4.0 0.00 0.00 0.00 63 1019.0
20260905115103 89 338 1.0 4.0 0.00 0.00 0.00 64 1019.1
20260905115003 89 338 1.0 4.0 0.00 0.00 0.00 62 1019.1
20260905114903 89 337 1.0 4.0 0.00 0.00 0.00 62 1019.0
20260905114803 89 338 1.0 4.0 0.00 0.00 0.00 64 1019.1
20260905114703 89 338 1.0 4.0 0.00 0.00 0.00 63 1019.2
20260905114603 89 338 1.0 4.0 0.00 0.00 0.00 64 1019.2
20260905114503 89 338 1.0 4.0 0.00 0.00 0.00 62 1019.1
20260905114403 89 341 1.0 4.0 0.00 0.00 0.00 65 1018.9
20260905114303 89 341 1.0 3.0 0.00 0.00 0.00 64 1019.2
20260905114203 89 341 1.0 3.0 0.00 0.00 0.00 63 1019.2
20260905114103 89 341 1.0 3.0 0.00 0.00 0.00 65 1019.1
20260905114003 88 333 2.0 3.0 0.00 0.00 0.00 66 1019.1
20260905113903 88 333 1.0 3.0 0.00 0.00 0.00 65 1019.2
20260905113803 88 332 2.0 3.0 0.00 0.00 0.00 64 1019.1
20260905113703 88 333 2.0 3.0 0.00 0.00 0.00 64 1019.0
20260905113603 88 322 2.0 3.0 0.00 0.00 0.00 67 1019.1
20260905113503 87 323 2.0 3.0 0.00 0.00 0.00 66 1019.1
20260905113403 87 320 2.0 3.0 0.00 0.00 0.00 68 1019.2
20260905113324 87 319 2.0 3.0 0.00 0.00 0.00 67 1019.2
20260905113224 87 322 2.0 3.0 0.00 0.00 0.00 67 1019.2
20260905113124 87 323 2.0 3.0 0.00 0.00 0.00 66 1019.3
20260905113003 87 324 2.0 3.0 0.00 0.00 0.00 65 1019.2
20260905112903 87 329 2.0 3.0 0.00 0.00 0.00 65 1019.1
20260905112803 87 332 2.0 3.0 0.00 0.00 0.00 66 1019.3
20260905112703 87 331 2.0 3.0 0.00 0.00 0.00 66 1019.1
20260905112624 87 336 2.0 3.0 0.00 0.00 0.00 66 1019.2
20260905112503 87 337 2.0 3.0 0.00 0.00 0.00 66 1019.1
20260905112424 87 333 2.0 3.0 0.00 0.00 0.00 66 1019.2
20260905112305 86 335 2.0 3.0 0.00 0.00 0.00 67 1019.2
20260905112224 86 334 2.0 3.0 0.00 0.00 0.00 67 1019.2
20260905112103 86 335 2.0 3.0 0.00 0.00 0.00 67 1019.3
20260905112024 87 330 2.0 3.0 0.00 0.00 0.00 68 1019.3
20260905111903 87 327 2.0 3.0 0.00 0.00 0.00 66 1019.3
20260905111803 87 325 2.0 3.0 0.00 0.00 0.00 65 1019.1
20260905111703 87 326 2.0 3.0 0.00 0.00 0.00 66 1019.2
20260905111603 87 330 2.0 4.0 0.00 0.00 0.00 65 1019.1
20260905111503 86 334 2.0 4.0 0.00 0.00 0.00 66 1019.3
20260905111403 86 339 2.0 4.0 0.00 0.00 0.00 68 1019.3
20260905111303 86 338 2.0 4.0 0.00 0.00 0.00 67 1019.3
20260905111224 86 337 2.0 4.0 0.00 0.00 0.00 67 1019.3
20260905111103 86 337 2.0 4.0 0.00 0.00 0.00 66 1019.3
20260905111003 86 336 2.0 4.0 0.00 0.00 0.00 66 1019.4
20260905110903 86 343 2.0 4.0 0.00 0.00 0.00 67 1019.3
20260905110803 86 343 2.0 4.0 0.00 0.00 0.00 64 1019.3
20260905110703 87 343 2.0 4.0 0.00 0.00 0.00 65 1019.3
20260905110603 87 342 2.0 3.0 0.00 0.00 0.00 67 1019.3
20260905110503 87 340 2.0 3.0 0.00 0.00 0.00 66 1019.3
20260905110403 86 336 2.0 3.0 0.00 0.00 0.00 65 1019.5
20260905110303 86 336 2.0 3.0 0.00 0.00 0.00 64 1019.4
20260905110224 86 338 2.0 3.0 0.00 0.00 0.00 65 1019.4
20260905110024 86 339 1.0 3.0 0.00 0.00 0.00 62 1019.5
20260905105903 86 339 1.0 3.0 0.00 0.00 0.00 63 1019.6
20260905105803 87 338 1.0 3.0 0.00 0.00 0.00 62 1019.4
20260905105703 87 337 1.0 3.0 0.00 0.00 0.00 60 1019.5
20260905105603 87 337 1.0 3.0 0.00 0.00 0.00 62 1019.3
20260905105524 87 339 1.0 3.0 0.00 0.00 0.00 60 1019.6
20260905105403 87 346 1.0 2.0 0.00 0.00 0.00 62 1019.6
20260905105306 87 347 1.0 2.0 0.00 0.00 0.00 63 1019.5
20260905105203 87 347 1.0 2.0 0.00 0.00 0.00 61 1019.6
20260905105124 87 347 1.0 2.0 0.00 0.00 0.00 64 1019.7
20260905105003 87 347 1.0 2.0 0.00 0.00 0.00 64 1019.5
20260905104903 87 347 1.0 2.0 0.00 0.00 0.00 61 1019.6
20260905104803 86 346 1.0 2.0 0.00 0.00 0.00 62 1019.7
20260905104703 86 346 1.0 2.0 0.00 0.00 0.00 65 1019.7
20260905104603 86 346 1.0 2.0 0.00 0.00 0.00 63 1019.6
20260905104503 86 346 1.0 2.0 0.00 0.00 0.00 63 1019.6
20260905104403 86 346 1.0 3.0 0.00 0.00 0.00 65 1019.7
20260905104303 86 345 1.0 3.0 0.00 0.00 0.00 64 1019.6
20260905104203 86 345 1.0 3.0 0.00 0.00 0.00 64 1019.8
20260905104103 86 345 1.0 3.0 0.00 0.00 0.00 63 1019.7
20260905104003 86 345 1.0 3.0 0.00 0.00 0.00 62 1019.7
20260905103903 86 345 1.0 3.0 0.00 0.00 0.00 61 1019.7
20260905103803 85 345 1.0 3.0 0.00 0.00 0.00 61 1019.5
20260905103703 85 345 1.0 3.0 0.00 0.00 0.00 63 1019.6
20260905103603 85 343 1.0 3.0 0.00 0.00 0.00 62 1019.6
20260905103503 85 343 1.0 3.0 0.00 0.00 0.00 62 1019.7
20260905103403 85 343 1.0 3.0 0.00 0.00 0.00 62 1019.6
20260905103303 84 343 1.0 2.0 0.00 0.00 0.00 63 1019.6
20260905103224 84 345 1.0 3.0 0.00 0.00 0.00 66 1019.6
20260905103103 84 345 1.0 3.0 0.00 0.00 0.00 64 1019.8
20260905103003 84 345 1.0 3.0 0.00 0.00 0.00 63 1019.7
20260905102903 84 345 1.0 3.0 0.00 0.00 0.00 64 1019.8
20260905102803 84 345 1.0 3.0 0.00 0.00 0.00 65 1019.6
20260905102703 84 345 1.0 3.0 0.00 0.00 0.00 66 1019.6
20260905102624 83 346 1.0 3.0 0.00 0.00 0.00 65 1019.5
20260905102503 83 347 1.0 3.0 0.00 0.00 0.00 69 1019.6
20260905102403 84 347 2.0 3.0 0.00 0.00 0.00 69 1019.6
20260905102306 84 347 1.0 3.0 0.00 0.00 0.00 68 1019.7
20260905102203 84 347 1.0 3.0 0.00 0.00 0.00 68 1019.7
20260905102103 84 346 1.0 3.0 0.00 0.00 0.00 69 1019.9
20260905102003 84 346 1.0 3.0 0.00 0.00 0.00 68 1019.7
20260905101924 84 346 1.0 3.0 0.00 0.00 0.00 68 1019.7
20260905101803 85 346 1.0 3.0 0.00 0.00 0.00 67 1019.7
20260905101703 85 346 1.0 3.0 0.00 0.00 0.00 69 1019.9
20260905101603 85 346 1.0 3.0 0.00 0.00 0.00 67 1019.9
20260905101503 85 347 1.0 3.0 0.00 0.00 0.00 67 1019.8
20260905101403 85 347 1.0 3.0 0.00 0.00 0.00 67 1019.7
20260905101303 85 347 1.0 3.0 0.00 0.00 0.00 69 1019.7
20260905101224 85 347 1.0 3.0 0.00 0.00 0.00 69 1019.7
20260905101103 85 347 1.0 3.0 0.00 0.00 0.00 67 1019.9
20260905101003 85 347 1.0 3.0 0.00 0.00 0.00 67 1019.9
20260905100903 85 347 1.0 3.0 0.00 0.00 0.00 66 1019.7
20260905100824 85 347 1.0 3.0 0.00 0.00 0.00 70 1019.9
20260905100703 85 347 1.0 3.0 0.00 0.00 0.00 69 1019.8
20260905100624 84 347 1.0 2.0 0.00 0.00 0.00 69 1019.8
20260905100503 84 347 1.0 2.0 0.00 0.00 0.00 71 1019.8
20260905100403 84 347 1.0 2.0 0.00 0.00 0.00 70 1019.7
20260905100303 84 347 1.0 2.0 0.00 0.00 0.00 72 1019.7
20260905100203 83 348 1.0 2.0 0.00 0.00 0.00 69 1019.8
20260905100003 82 348 0.0 2.0 0.00 0.00 0.00 72 1019.9
20260905095924 82 348 1.0 2.0 0.00 0.00 0.00 74 1019.9
20260905095803 82 348 1.0 2.0 0.00 0.00 0.00 72 1019.9
20260905095703 82 348 1.0 2.0 0.00 0.00 0.00 72 1019.9
20260905095603 82 346 1.0 2.0 0.00 0.00 0.00 71 1019.7
20260905095504 83 341 1.0 2.0 0.00 0.00 0.00 70 1020.0
20260905095424 83 340 1.0 2.0 0.00 0.00 0.00 70 1019.9
20260905095305 83 335 1.0 2.0 0.00 0.00 0.00 71 1019.8
20260905095203 82 325 1.0 3.0 0.00 0.00 0.00 71 1020.0
20260905095103 81 318 1.0 3.0 0.00 0.00 0.00 74 1019.9
20260905095003 81 318 2.0 3.0 0.00 0.00 0.00 75 1019.9
20260905094903 81 312 2.0 3.0 0.00 0.00 0.00 75 1019.8
20260905094803 81 305 2.0 3.0 0.00 0.00 0.00 75 1019.9
20260905094703 80 297 2.0 4.0 0.00 0.00 0.00 76 1019.8
20260905094603 80 293 2.0 4.0 0.00 0.00 0.00 77 1020.0
20260905094524 80 293 2.0 4.0 0.00 0.00 0.00 77 1020.0
20260905094403 80 291 2.0 4.0 0.00 0.00 0.00 76 1019.7
20260905094303 80 289 1.0 4.0 0.00 0.00 0.00 76 1019.9
20260905094203 80 294 1.0 4.0 0.00 0.00 0.00 78 1020.1
20260905094124 80 294 1.0 4.0 0.00 0.00 0.00 76 1019.8
20260905094003 81 302 1.0 4.0 0.00 0.00 0.00 76 1019.9
20260905093924 81 310 1.0 4.0 0.00 0.00 0.00 77 1019.9
20260905093803 81 310 1.0 4.0 0.00 0.00 0.00 76 1019.9
20260905093703 81 321 1.0 4.0 0.00 0.00 0.00 75 1019.8
20260905093624 80 347 1.0 2.0 0.00 0.00 0.00 76 1020.0
20260905093503 80 346 1.0 2.0 0.00 0.00 0.00 76 1020.0
20260905093424 79 346 1.0 2.0 0.00 0.00 0.00 76 1019.7
20260905093324 79 346 1.0 2.0 0.00 0.00 0.00 77 1019.8
20260905093203 79 346 1.0 2.0 0.00 0.00 0.00 77 1019.9
20260905093103 79 346 1.0 2.0 0.00 0.00 0.00 77 1019.8
20260905093003 79 346 1.0 2.0 0.00 0.00 0.00 77 1019.9
20260905092924 79 345 1.0 2.0 0.00 0.00 0.00 78 1019.9
20260905092803 79 345 1.0 2.0 0.00 0.00 0.00 78 1019.8
20260905092703 79 345 1.0 2.0 0.00 0.00 0.00 78 1019.8
20260905092603 79 345 1.0 2.0 0.00 0.00 0.00 78 1019.8
20260905092503 80 345 1.0 2.0 0.00 0.00 0.00 77 1019.9
20260905092403 80 345 1.0 2.0 0.00 0.00 0.00 77 1019.8
20260905092306 80 345 1.0 2.0 0.00 0.00 0.00 78 1020.1
20260905092203 80 345 1.0 2.0 0.00 0.00 0.00 78 1020.1
20260905092103 80 339 1.0 2.0 0.00 0.00 0.00 77 1019.9
20260905092003 80 340 1.0 2.0 0.00 0.00 0.00 78 1019.8
20260905091903 79 340 1.0 2.0 0.00 0.00 0.00 79 1019.9
20260905091803 79 340 1.0 2.0 0.00 0.00 0.00 78 1020.0
20260905091724 79 340 1.0 2.0 0.00 0.00 0.00 78 1020.0
20260905091603 79 342 1.0 2.0 0.00 0.00 0.00 78 1019.9
20260905091503 78 343 1.0 2.0 0.00 0.00 0.00 80 1020.0
20260905091403 78 343 1.0 2.0 0.00 0.00 0.00 79 1020.1
20260905091303 78 343 1.0 2.0 0.00 0.00 0.00 79 1020.1
20260905091224 78 345 1.0 3.0 0.00 0.00 0.00 79 1020.1
20260905091103 78 348 1.0 3.0 0.00 0.00 0.00 79 1020.1
20260905091003 78 348 1.0 3.0 0.00 0.00 0.00 80 1020.0
20260905090903 77 349 1.0 3.0 0.00 0.00 0.00 80 1020.0
20260905090803 77 350 1.0 3.0 0.00 0.00 0.00 82 1020.0
20260905090703 77 350 1.0 3.0 0.00 0.00 0.00 81 1019.9
20260905090603 77 349 1.0 3.0 0.00 0.00 0.00 81 1019.9
20260905090503 77 349 1.0 3.0 0.00 0.00 0.00 81 1019.9
20260905090403 77 346 1.0 3.0 0.00 0.00 0.00 81 1020.0
20260905090303 77 339 1.0 3.0 0.00 0.00 0.00 82 1020.1
20260905090224 77 337 1.0 3.0 0.00 0.00 0.00 82 1020.0
20260905090103 77 334 1.0 3.0 0.00 0.00 0.00 82 1019.9
20260905090003 76 335 1.0 3.0 0.00 0.00 0.00 83 1019.8
20260905085903 76 335 1.0 3.0 0.00 0.00 0.00 83 1020.0
20260905085803 76 335 1.0 3.0 0.00 0.00 0.00 83 1019.9
20260905085724 76 334 1.0 3.0 0.00 0.00 0.00 83 1020.0
20260905085603 76 332 2.0 4.0 0.00 0.00 0.00 83 1019.9
20260905085503 76 331 2.0 4.0 0.00 0.00 0.00 82 1020.0
20260905085403 76 330 2.0 4.0 0.00 0.00 0.00 82 1020.1
20260905085305 76 336 2.0 6.0 0.00 0.00 0.00 82 1020.0
20260905085224 76 342 2.0 6.0 0.00 0.00 0.00 83 1019.8
20260905085124 76 343 2.0 6.0 0.00 0.00 0.00 83 1019.9
20260905085003 76 343 2.0 6.0 0.00 0.00 0.00 84 1019.8
20260905084903 75 344 2.0 6.0 0.00 0.00 0.00 84 1020.0
20260905084803 75 344 2.0 6.0 0.00 0.00 0.00 84 1020.0
20260905084703 75 346 2.0 6.0 0.00 0.00 0.00 84 1020.0
20260905084603 75 349 2.0 6.0 0.00 0.00 0.00 84 1019.7
20260905084503 75 355 2.0 6.0 0.00 0.00 0.00 85 1020.0
20260905084403 75 356 2.0 6.0 0.00 0.00 0.00 85 1019.8
20260905084303 74 358 2.0 3.0 0.00 0.00 0.00 84 1019.8
20260905084203 74 358 2.0 3.0 0.00 0.00 0.00 85 1019.8
20260905084103 74 2 2.0 3.0 0.00 0.00 0.00 85 1020.0
20260905084003 74 1 2.0 3.0 0.00 0.00 0.00 85 1019.9
20260905083903 74 2 2.0 3.0 0.00 0.00 0.00 86 1020.1
20260905083803 74 2 2.0 3.0 0.00 0.00 0.00 86 1020.0
20260905083703 74 4 2.0 3.0 0.00 0.00 0.00 86 1019.9
20260905083603 74 4 2.0 3.0 0.00 0.00 0.00 86 1019.8
20260905083503 74 3 2.0 3.0 0.00 0.00 0.00 86 1020.1
20260905083403 74 3 2.0 3.0 0.00 0.00 0.00 86 1020.1
20260905083303 74 3 2.0 3.0 0.00 0.00 0.00 86 1020.2
20260905083203 74 3 1.0 3.0 0.00 0.00 0.00 85 1019.9
20260905083103 74 4 1.0 3.0 0.00 0.00 0.00 85 1019.9
20260905083024 74 5 1.0 3.0 0.00 0.00 0.00 85 1020.0
20260905082903 74 8 1.0 3.0 0.00 0.00 0.00 84 1019.8
20260905082824 74 11 1.0 3.0 0.00 0.00 0.00 84 1020.0
20260905082704 75 7 0.0 2.0 0.00 0.00 0.00 83 1020.1
20260905082603 75 9 0.0 1.0 0.00 0.00 0.00 83 1019.9
20260905082503 74 14 0.0 1.0 0.00 0.00 0.00 84 1020.0
20260905082424 74 1 0.0 2.0 0.00 0.00 0.00 84 1020.1
20260905082324 74 15 1.0 2.0 0.00 0.00 0.00 85 1019.9
20260905082203 74 16 1.0 2.0 0.00 0.00 0.00 85 1019.9
20260905082103 74 19 1.0 2.0 0.00 0.00 0.00 85 1020.0
20260905082003 73 26 1.0 2.0 0.00 0.00 0.00 85 1020.0
20260905081903 73 16 1.0 2.0 0.00 0.00 0.00 86 1019.9
20260905081803 73 17 1.0 2.0 0.00 0.00 0.00 86 1019.8
20260905081724 73 21 1.0 2.0 0.00 0.00 0.00 87 1019.9
20260905081603 73 22 1.0 2.0 0.00 0.00 0.00 87 1019.9
20260905081503 73 12 1.0 2.0 0.00 0.00 0.00 87 1019.9
20260905081403 73 7 1.0 2.0 0.00 0.00 0.00 87 1019.9
20260905081303 72 8 1.0 2.0 0.00 0.00 0.00 87 1019.8
20260905081203 72 1 1.0 2.0 0.00 0.00 0.00 88 1019.6
20260905081124 72 1 1.0 2.0 0.00 0.00 0.00 89 1019.7
20260905081003 72 7 1.0 3.0 0.00 0.00 0.00 89 1019.8
20260905080924 72 15 2.0 3.0 0.00 0.00 0.00 89 1019.7
20260905080803 72 30 2.0 3.0 0.00 0.00 0.00 89 1019.7
20260905080703 72 33 2.0 3.0 0.00 0.00 0.00 89 1019.8
20260905080603 72 38 2.0 3.0 0.00 0.00 0.00 89 1019.5
20260905080503 72 46 1.0 3.0 0.00 0.00 0.00 89 1019.7
20260905080403 72 54 1.0 3.0 0.00 0.00 0.00 90 1019.9
20260905080324 72 58 1.0 3.0 0.00 0.00 0.00 89 1019.8
20260905080203 71 58 1.0 3.0 0.00 0.00 0.00 90 1019.7
20260905080003 71 54 1.0 2.0 0.00 0.00 0.00 90 1019.6
20260905075903 71 52 1.0 2.0 0.00 0.00 0.00 91 1019.7
20260905075824 71 52 1.0 2.0 0.00 0.00 0.00 91 1019.7
20260905075703 71 44 0.0 2.0 0.00 0.00 0.00 93 1019.7
20260905075603 71 35 0.0 1.0 0.00 0.00 0.00 93 1019.5
20260905075503 70 35 0.0 1.0 0.00 0.00 0.00 94 1019.7
20260905075403 70 33 0.0 1.0 0.00 0.00 0.00 94 1019.7
20260905075306 70 33 0.0 1.0 0.00 0.00 0.00 94 1019.7
20260905075224 70 34 0.0 1.0 0.00 0.00 0.00 95 1019.7
20260905075103 70 33 0.0 1.0 0.00 0.00 0.00 96 1019.8
20260905075003 69 38 0.0 2.0 0.00 0.00 0.00 96 1019.8
20260905074903 69 39 0.0 2.0 0.00 0.00 0.00 96 1019.7
20260905074803 69 42 1.0 2.0 0.00 0.00 0.00 96 1019.8
20260905074703 69 43 1.0 2.0 0.00 0.00 0.00 97 1019.6
20260905074603 69 43 1.0 2.0 0.00 0.00 0.00 97 1019.6
20260905074503 68 40 1.0 2.0 0.00 0.00 0.00 97 1019.8
20260905074403 68 33 1.0 2.0 0.00 0.00 0.00 97 1019.7
20260905074303 68 22 1.0 2.0 0.00 0.00 0.00 98 1019.8
20260905074203 68 21 1.0 2.0 0.00 0.00 0.00 98 1019.6
20260905074103 68 20 1.0 2.0 0.00 0.00 0.00 98 1019.6
20260905074003 68 17 1.0 2.0 0.00 0.00 0.00 98 1019.7
20260905073903 68 17 1.0 2.0 0.00 0.00 0.00 98 1019.8
20260905073803 68 14 1.0 2.0 0.00 0.00 0.00 98 1019.6
20260905073703 68 10 1.0 2.0 0.00 0.00 0.00 99 1019.7
20260905073603 68 26 1.0 3.0 0.00 0.00 0.00 99 1019.8
20260905073503 68 31 1.0 3.0 0.00 0.00 0.00 99 1019.8
20260905073403 68 35 1.0 3.0 0.00 0.00 0.00 99 1019.9
20260905073303 68 39 1.0 3.0 0.00 0.00 0.00 99 1019.8
20260905073203 67 44 1.0 3.0 0.00 0.00 0.00 99 1019.8
20260905073103 67 46 1.0 3.0 0.00 0.00 0.00 99 1019.9
20260905073025 67 47 1.0 3.0 0.00 0.00 0.00 99 1019.8
20260905072903 67 47 1.0 3.0 0.00 0.00 0.00 99 1019.8
20260905072803 67 51 1.0 3.0 0.00 0.00 0.00 99 1019.7
20260905072703 67 58 1.0 3.0 0.00 0.00 0.00 99 1019.8
20260905072624 67 58 1.0 3.0 0.00 0.00 0.00 99 1019.8
20260905072503 66 54 1.0 3.0 0.00 0.00 0.00 99 1019.8
20260905072403 66 54 1.0 3.0 0.00 0.00 0.00 99 1019.8
20260905072306 66 55 1.0 3.0 0.00 0.00 0.00 99 1019.7
20260905072224 66 56 1.0 3.0 0.00 0.00 0.00 99 1019.7
20260905072103 66 65 1.0 3.0 0.00 0.00 0.00 99 1019.7
20260905072003 66 63 2.0 3.0 0.00 0.00 0.00 99 1019.9
20260905071903 66 64 2.0 3.0 0.00 0.00 0.00 99 1019.8
20260905071803 66 64 2.0 3.0 0.00 0.00 0.00 99 1019.8
20260905071724 66 64 2.0 3.0 0.00 0.00 0.00 99 1019.8
20260905071603 66 72 2.0 3.0 0.00 0.00 0.00 99 1019.7
20260905071503 66 71 2.0 4.0 0.00 0.00 0.00 99 1019.7
20260905071403 66 72 2.0 4.0 0.00 0.00 0.00 99 1019.8
20260905071324 66 73 2.0 4.0 0.00 0.00 0.00 99 1019.7
20260905071203 66 73 2.0 4.0 0.00 0.00 0.00 99 1019.8
20260905071103 66 70 2.0 4.0 0.00 0.00 0.00 99 1019.7
20260905071003 66 71 2.0 4.0 0.00 0.00 0.00 99 1019.9
20260905070903 66 72 2.0 4.0 0.00 0.00 0.00 99 1019.8
20260905070824 66 69 2.0 4.0 0.00 0.00 0.00 99 1019.8
20260905070703 66 68 2.0 4.0 0.00 0.00 0.00 99 1019.9
20260905070624 66 65 2.0 4.0 0.00 0.00 0.00 99 1019.8
20260905070503 66 55 2.0 4.0 0.00 0.00 0.00 99 1019.7
20260905070403 66 47 1.0 2.0 0.00 0.00 0.00 99 1019.5
20260905070303 66 41 1.0 2.0 0.00 0.00 0.00 99 1019.5
20260905070224 66 35 1.0 2.0 0.00 0.00 0.00 99 1019.6
20260905070103 66 31 1.0 2.0 0.00 0.00 0.00 99 1019.6
20260905070004 66 24 1.0 2.0 0.00 0.00 0.00 99 1019.4
20260905065903 66 19 1.0 2.0 0.00 0.00 0.00 99 1019.4
20260905065803 66 15 1.0 2.0 0.00 0.00 0.00 99 1019.3
20260905065703 66 7 1.0 2.0 0.00 0.00 0.00 99 1019.5
20260905065603 66 358 1.0 3.0 0.00 0.00 0.00 99 1019.3
20260905065504 66 356 1.0 3.0 0.00 0.00 0.00 99 1019.5
20260905065403 66 356 1.0 3.0 0.00 0.00 0.00 99 1019.3
20260905065306 66 356 2.0 3.0 0.00 0.00 0.00 99 1019.3
20260905065203 66 357 2.0 3.0 0.00 0.00 0.00 99 1019.5
20260905065103 66 358 2.0 3.0 0.00 0.00 0.00 99 1019.5
20260905065003 66 358 2.0 3.0 0.00 0.00 0.00 99 1019.4
20260905064903 66 358 2.0 3.0 0.00 0.00 0.00 99 1019.3
20260905064803 66 359 2.0 3.0 0.00 0.00 0.00 99 1019.5
20260905064703 65 359 2.0 3.0 0.00 0.00 0.00 99 1019.5
20260905064604 65 360 2.0 3.0 0.00 0.00 0.00 99 1019.6
20260905064503 65 360 2.0 3.0 0.00 0.00 0.00 99 1019.7
20260905064403 65 1 2.0 3.0 0.00 0.00 0.00 99 1019.8
20260905064324 65 2 1.0 3.0 0.00 0.00 0.00 99 1019.7
20260905064224 65 4 1.0 3.0 0.00 0.00 0.00 99 1019.7
20260905064103 65 3 1.0 3.0 0.00 0.00 0.00 99 1019.7
20260905064003 65 1 1.0 3.0 0.00 0.00 0.00 99 1019.8
20260905063903 65 360 1.0 3.0 0.00 0.00 0.00 99 1019.8
20260905063803 65 360 1.0 3.0 0.00 0.00 0.00 99 1019.8
20260905063724 65 360 1.0 3.0 0.00 0.00 0.00 99 1019.8
20260905063624 65 2 1.0 2.0 0.00 0.00 0.00 99 1019.9
20260905063503 65 4 1.0 2.0 0.00 0.00 0.00 99 1019.8
20260905063424 65 4 1.0 2.0 0.00 0.00 0.00 99 1020.0
20260905063303 65 4 1.0 2.0 0.00 0.00 0.00 99 1020.0
20260905063224 65 4 1.0 2.0 0.00 0.00 0.00 99 1020.0
20260905063103 65 5 1.0 2.0 0.00 0.00 0.00 99 1020.0
20260905063003 65 5 1.0 2.0 0.00 0.00 0.00 99 1019.9
20260905062903 65 7 1.0 2.0 0.00 0.00 0.00 99 1020.1
20260905062803 65 12 0.0 1.0 0.00 0.00 0.00 99 1020.0
20260905062704 65 15 0.0 1.0 0.00 0.00 0.00 99 1020.0
20260905062603 65 20 0.0 1.0 0.00 0.00 0.00 99 1020.2
20260905062524 65 14 0.0 1.0 0.00 0.00 0.00 99 1020.0
20260905062403 65 20 0.0 1.0 0.00 0.00 0.00 99 1020.1
20260905062305 65 21 0.0 1.0 0.00 0.00 0.00 99 1020.0
20260905062203 65 21 0.0 1.0 0.00 0.00 0.00 99 1020.3
20260905062103 65 21 0.0 1.0 0.00 0.00 0.00 99 1020.1
20260905062024 65 21 0.0 1.0 0.00 0.00 0.00 99 1020.1
20260905061903 65 17 0.0 1.0 0.00 0.00 0.00 99 1020.3
20260905061803 65 17 0.0 1.0 0.00 0.00 0.00 99 1020.2
20260905061703 65 18 0.0 1.0 0.00 0.00 0.00 99 1020.1
20260905061603 65 18 0.0 1.0 0.00 0.00 0.00 99 1020.3
20260905061503 65 20 0.0 1.0 0.00 0.00 0.00 99 1020.2
20260905061403 65 19 0.0 1.0 0.00 0.00 0.00 99 1020.1
20260905061303 65 16 0.0 1.0 0.00 0.00 0.00 99 1020.3
20260905061203 65 13 0.0 1.0 0.00 0.00 0.00 99 1020.1
20260905061103 65 16 0.0 1.0 0.00 0.00 0.00 99 1020.1
20260905061003 65 22 0.0 1.0 0.00 0.00 0.00 99 1020.2
20260905060903 65 32 0.0 2.0 0.00 0.00 0.00 99 1020.3
20260905060803 65 40 0.0 2.0 0.00 0.00 0.00 99 1020.1
20260905060703 65 46 1.0 2.0 0.00 0.00 0.00 99 1020.2
20260905060603 65 44 1.0 2.0 0.00 0.00 0.00 99 1020.2
20260905060503 65 39 1.0 2.0 0.00 0.00 0.00 99 1020.2
20260905060403 65 38 1.0 2.0 0.00 0.00 0.00 99 1020.5
20260905060303 65 36 1.0 2.0 0.00 0.00 0.00 99 1020.3
20260905060203 65 35 1.0 2.0 0.00 0.00 0.00 99 1020.2
20260905060003 65 35 1.0 2.0 0.00 0.00 0.00 99 1020.2
20260905055903 65 32 1.0 2.0 0.00 0.00 0.00 99 1019.9
20260905055803 65 29 1.0 2.0 0.00 0.00 0.00 99 1020.2
20260905055704 65 35 1.0 2.0 0.00 0.00 0.00 99 1020.2
20260905055603 65 38 1.0 2.0 0.00 0.00 0.00 99 1020.1
20260905055503 65 42 1.0 2.0 0.00 0.00 0.00 99 1020.0
20260905055424 65 42 1.0 2.0 0.00 0.00 0.00 99 1020.0
20260905055306 65 45 1.0 2.0 0.00 0.00 0.00 99 1020.0
20260905055203 65 54 1.0 3.0 0.00 0.00 0.00 99 1020.0
20260905055124 65 57 1.0 3.0 0.00 0.00 0.00 99 1020.0
20260905055003 65 57 1.0 3.0 0.00 0.00 0.00 99 1019.9
20260905054903 65 55 1.0 3.0 0.00 0.00 0.00 99 1020.0
20260905054803 65 57 1.0 3.0 0.00 0.00 0.00 99 1019.8
20260905054703 65 57 1.0 3.0 0.00 0.00 0.00 99 1019.9
20260905054603 65 48 1.0 3.0 0.00 0.00 0.00 99 1020.0
20260905054503 65 47 1.0 3.0 0.00 0.00 0.00 99 1019.8
20260905054403 65 51 1.0 3.0 0.00 0.00 0.00 99 1019.6
20260905054303 65 53 1.0 3.0 0.00 0.00 0.00 99 1019.7
20260905054203 65 43 1.0 2.0 0.00 0.00 0.00 99 1019.6
20260905054103 65 37 1.0 2.0 0.00 0.00 0.00 99 1019.7
20260905054003 65 37 1.0 2.0 0.00 0.00 0.00 99 1019.7
20260905053924 65 34 1.0 2.0 0.00 0.00 0.00 99 1019.6
20260905053803 65 36 1.0 2.0 0.00 0.00 0.00 99 1019.6
20260905053703 65 35 1.0 2.0 0.00 0.00 0.00 99 1019.7
20260905053603 65 33 1.0 2.0 0.00 0.00 0.00 99 1020.0
20260905053503 65 33 1.0 2.0 0.00 0.00 0.00 99 1019.8
20260905053403 65 25 1.0 2.0 0.00 0.00 0.00 99 1019.9
20260905053303 65 13 0.0 1.0 0.00 0.00 0.00 99 1019.8
20260905053203 65 7 1.0 1.0 0.00 0.00 0.00 99 1019.8
20260905053103 65 3 1.0 2.0 0.00 0.00 0.00 99 1019.7
20260905053003 65 3 1.0 2.0 0.00 0.00 0.00 99 1019.7
20260905052903 65 3 1.0 2.0 0.00 0.00 0.00 99 1019.5
20260905052803 65 17 1.0 4.0 0.00 0.00 0.00 99 1019.6
20260905052703 65 31 1.0 4.0 0.00 0.00 0.00 99 1019.4
20260905052603 65 35 1.0 4.0 0.00 0.00 0.00 99 1019.6
20260905052503 65 44 1.0 4.0 0.00 0.00 0.00 99 1019.6
20260905052424 65 44 1.0 4.0 0.00 0.00 0.00 99 1019.8
20260905052306 65 37 1.0 4.0 0.00 0.00 0.00 99 1019.7
20260905052203 65 41 1.0 4.0 0.00 0.00 0.00 99 1019.7
20260905052103 65 43 1.0 4.0 0.00 0.00 0.00 99 1019.7
20260905052003 65 56 1.0 4.0 0.00 0.00 0.00 99 1019.6
20260905051903 65 63 1.0 4.0 0.00 0.00 0.00 99 1019.8
20260905051824 65 77 1.0 4.0 0.00 0.00 0.00 99 1020.0
20260905051703 65 43 1.0 2.0 0.00 0.00 0.00 99 1019.9
20260905051603 65 35 0.0 2.0 0.00 0.00 0.00 99 1019.8
20260905051503 65 22 0.0 1.0 0.00 0.00 0.00 99 1019.7
20260905051404 65 22 0.0 1.0 0.00 0.00 0.00 99 1019.5
20260905051303 65 27 0.0 1.0 0.00 0.00 0.00 99 1019.5
20260905051203 65 30 0.0 1.0 0.00 0.00 0.00 99 1019.6
20260905051103 65 36 0.0 1.0 0.00 0.00 0.00 99 1019.7
20260905051004 65 36 0.0 1.0 0.00 0.00 0.00 99 1019.8
20260905050903 65 36 0.0 1.0 0.00 0.00 0.00 99 1019.6
20260905050803 65 36 0.0 1.0 0.00 0.00 0.00 99 1019.6
20260905050703 65 36 0.0 1.0 0.00 0.00 0.00 99 1019.6
20260905050603 65 36 0.0 1.0 0.00 0.00 0.00 99 1019.7
20260905050503 65 36 0.0 1.0 0.00 0.00 0.00 99 1019.6
20260905050403 65 33 0.0 1.0 0.00 0.00 0.00 99 1019.7
20260905050324 65 0 0.0 0.0 0.00 0.00 0.00 99 1019.6
20260905050224 65 0 0.0 0.0 0.00 0.00 0.00 99 1019.8
20260905050103 65 0 0.0 0.0 0.00 0.00 0.00 99 1019.7
20260905050003 65 33 0.0 1.0 0.00 0.00 0.00 99 1019.7
20260905045903 65 33 0.0 1.0 0.00 0.00 0.00 99 1019.8
20260905045803 65 33 0.0 1.0 0.00 0.00 0.00 99 1019.9
20260905045724 65 33 0.0 1.0 0.00 0.00 0.00 99 1020.0
20260905045603 65 33 0.0 1.0 0.00 0.00 0.00 99 1019.7
20260905045503 65 32 0.0 1.0 0.00 0.00 0.00 99 1019.6
20260905045403 65 32 0.0 1.0 0.00 0.00 0.00 99 1019.6
20260905045324 65 32 0.0 1.0 0.00 0.00 0.00 99 1019.7
20260905045224 65 33 1.0 1.0 0.00 0.00 0.00 99 1019.8
20260905045103 65 33 1.0 2.0 0.00 0.00 0.00 99 1019.7
20260905045003 65 33 1.0 2.0 0.00 0.00 0.00 99 1019.9
20260905044903 65 33 1.0 2.0 0.00 0.00 0.00 99 1019.7
20260905044803 65 33 1.0 2.0 0.00 0.00 0.00 99 1019.9
20260905044703 65 34 0.0 2.0 0.00 0.00 0.00 99 1019.8
20260905044603 65 34 0.0 2.0 0.00 0.00 0.00 99 1019.7
20260905044503 65 34 0.0 2.0 0.00 0.00 0.00 99 1019.8
20260905044424 65 34 0.0 2.0 0.00 0.00 0.00 99 1019.7
20260905044303 65 35 0.0 2.0 0.00 0.00 0.00 99 1019.9
20260905044203 65 35 0.0 2.0 0.00 0.00 0.00 99 1019.8
20260905044124 65 35 0.0 2.0 0.00 0.00 0.00 99 1019.8
20260905044003 65 37 0.0 1.0 0.00 0.00 0.00 99 1019.8
20260905043924 65 37 0.0 1.0 0.00 0.00 0.00 99 1019.8
20260905043803 65 37 0.0 1.0 0.00 0.00 0.00 99 1019.9
20260905043703 65 35 0.0 1.0 0.00 0.00 0.00 99 1019.9
20260905043603 65 35 0.0 1.0 0.00 0.00 0.00 99 1020.0
20260905043524 65 29 0.0 1.0 0.00 0.00 0.00 99 1020.0
20260905043403 65 29 0.0 1.0 0.00 0.00 0.00 99 1020.0
20260905043303 65 23 1.0 2.0 0.00 0.00 0.00 99 1020.0
20260905043224 65 17 1.0 2.0 0.00 0.00 0.00 99 1019.9
20260905043103 65 15 1.0 2.0 0.00 0.00 0.00 99 1020.1
20260905043003 65 13 1.0 2.0 0.00 0.00 0.00 99 1019.9
20260905042924 65 10 1.0 2.0 0.00 0.00 0.00 99 1020.0
20260905042803 65 6 1.0 2.0 0.00 0.00 0.00 99 1019.9
20260905042703 65 5 1.0 2.0 0.00 0.00 0.00 99 1019.7
20260905042624 65 5 1.0 2.0 0.00 0.00 0.00 99 1019.8
20260905042503 65 6 1.0 2.0 0.00 0.00 0.00 99 1019.8
20260905042403 65 7 1.0 2.0 0.00 0.00 0.00 99 1019.8
20260905042306 65 7 1.0 2.0 0.00 0.00 0.00 99 1019.9
20260905042224 65 7 1.0 2.0 0.00 0.00 0.00 99 1019.8
20260905042103 65 8 1.0 2.0 0.00 0.00 0.00 99 1019.9
20260905042003 65 8 1.0 2.0 0.00 0.00 0.00 99 1019.9
20260905041903 65 8 1.0 2.0 0.00 0.00 0.00 99 1020.0
20260905041804 65 9 1.0 2.0 0.00 0.00 0.00 99 1019.9
20260905041703 65 11 1.0 2.0 0.00 0.00 0.00 99 1020.0
20260905041624 65 14 1.0 2.0 0.00 0.00 0.00 99 1020.0
20260905041503 65 14 1.0 2.0 0.00 0.00 0.00 99 1020.0
20260905041424 65 14 1.0 2.0 0.00 0.00 0.00 99 1020.1
20260905041324 65 16 1.0 2.0 0.00 0.00 0.00 99 1020.2
20260905041204 65 18 0.0 1.0 0.00 0.00 0.00 99 1020.0
20260905041124 65 20 0.0 1.0 0.00 0.00 0.00 99 1020.1
20260905041003 65 22 0.0 1.0 0.00 0.00 0.00 99 1020.1
20260905040903 65 26 0.0 1.0 0.00 0.00 0.00 99 1020.0
20260905040803 65 31 0.0 1.0 0.00 0.00 0.00 99 1020.2
20260905040703 65 32 0.0 1.0 0.00 0.00 0.00 99 1020.3
20260905040603 65 34 0.0 1.0 0.00 0.00 0.00 99 1020.3
20260905040524 65 0 0.0 0.0 0.00 0.00 0.00 99 1020.3
20260905040403 65 0 0.0 0.0 0.00 0.00 0.00 99 1020.4
20260905040304 65 0 0.0 0.0 0.00 0.00 0.00 99 1020.4
20260905040203 65 0 0.0 0.0 0.00 0.00 0.00 99 1020.3
20260905040103 65 0 0.0 0.0 0.00 0.00 0.00 99 1020.3
20260905040004 65 0 0.0 0.0 0.00 0.00 0.00 99 1020.3
20260905035924 65 0 0.0 0.0 0.00 0.00 0.00 99 1020.4
20260905035803 65 0 0.0 0.0 0.00 0.00 0.00 99 1020.3
20260905035703 65 38 0.0 1.0 0.00 0.00 0.00 99 1020.4
20260905035603 65 38 0.0 1.0 0.00 0.00 0.00 99 1020.2
20260905035503 65 35 0.0 1.0 0.00 0.00 0.00 99 1020.3
20260905035403 65 35 0.0 1.0 0.00 0.00 0.00 99 1020.5
20260905035306 65 35 0.0 1.0 0.00 0.00 0.00 99 1020.3
20260905035224 65 33 0.0 1.0 0.00 0.00 0.00 99 1020.2
20260905035103 65 32 0.0 1.0 0.00 0.00 0.00 99 1020.5
20260905035003 65 32 0.0 1.0 0.00 0.00 0.00 99 1020.2
20260905034903 65 32 0.0 1.0 0.00 0.00 0.00 99 1020.2
20260905034803 65 32 0.0 1.0 0.00 0.00 0.00 99 1020.3
20260905034703 65 30 0.0 1.0 0.00 0.00 0.00 99 1020.4
20260905034603 65 30 0.0 1.0 0.00 0.00 0.00 99 1020.5
20260905034503 65 30 0.0 1.0 0.00 0.00 0.00 99 1020.3
20260905034403 65 30 0.0 1.0 0.00 0.00 0.00 99 1020.4
20260905034324 65 28 0.0 1.0 0.00 0.00 0.00 99 1020.4
20260905034203 65 27 0.0 1.0 0.00 0.00 0.00 99 1020.4
20260905034103 65 27 0.0 1.0 0.00 0.00 0.00 99 1020.5
20260905034003 65 0 0.0 0.0 0.00 0.00 0.00 99 1020.2
20260905033924 65 29 0.0 1.0 0.00 0.00 0.00 99 1020.4
20260905033803 65 29 0.0 1.0 0.00 0.00 0.00 99 1020.2
20260905033703 65 24 0.0 1.0 0.00 0.00 0.00 99 1020.4
20260905033603 65 30 0.0 2.0 0.00 0.00 0.00 99 1020.3
20260905033503 65 31 0.0 2.0 0.00 0.00 0.00 99 1020.3
20260905033424 65 31 0.0 2.0 0.00 0.00 0.00 99 1020.2
20260905033303 65 31 0.0 2.0 0.00 0.00 0.00 99 1020.2
20260905033203 65 32 0.0 2.0 0.00 0.00 0.00 99 1020.5
20260905033103 65 33 1.0 2.0 0.00 0.00 0.00 99 1020.4
20260905033024 65 33 1.0 2.0 0.00 0.00 0.00 99 1020.6
20260905032903 65 33 1.0 2.0 0.00 0.00 0.00 99 1020.6
20260905032803 65 51 1.0 3.0 0.00 0.00 0.00 99 1020.5
20260905032703 65 57 1.0 3.0 0.00 0.00 0.00 99 1020.5
20260905032623 65 61 1.0 3.0 0.00 0.00 0.00 99 1020.5
20260905032503 65 66 1.0 3.0 0.00 0.00 0.00 99 1020.3
20260905032403 65 68 1.0 3.0 0.00 0.00 0.00 99 1020.6
20260905032306 65 75 2.0 3.0 0.00 0.00 0.00 99 1020.5
20260905032224 65 77 2.0 3.0 0.00 0.00 0.00 99 1020.6
20260905032102 65 77 2.0 3.0 0.00 0.00 0.00 99 1020.7
20260905032003 65 78 2.0 3.0 0.00 0.00 0.00 99 1020.4
20260905031902 65 76 2.0 4.0 0.00 0.00 0.00 99 1020.6
20260905031802 65 78 2.0 4.0 0.00 0.00 0.00 99 1020.4
20260905031702 65 73 2.0 4.0 0.00 0.00 0.00 99 1020.6
20260905031602 65 74 2.0 4.0 0.00 0.00 0.00 99 1020.4
20260905031524 65 73 2.0 4.0 0.00 0.00 0.00 99 1020.4
20260905031403 65 73 2.0 4.0 0.00 0.00 0.00 99 1020.4
20260905031302 65 67 2.0 4.0 0.00 0.00 0.00 99 1020.5
20260905031203 65 67 2.0 4.0 0.00 0.00 0.00 99 1020.4
20260905031103 65 67 2.0 4.0 0.00 0.00 0.00 99 1020.4
20260905031003 65 66 2.0 4.0 0.00 0.00 0.00 99 1020.4
20260905030903 65 62 2.0 4.0 0.00 0.00 0.00 99 1020.3
20260905030803 65 62 1.0 3.0 0.00 0.00 0.00 99 1020.3
20260905030724 65 59 1.0 3.0 0.00 0.00 0.00 99 1020.3
20260905030624 65 60 1.0 3.0 0.00 0.00 0.00 99 1020.2
20260905030503 65 52 1.0 2.0 0.00 0.00 0.00 99 1020.1
20260905030402 65 52 1.0 2.0 0.00 0.00 0.00 99 1020.3
20260905030303 65 52 1.0 2.0 0.00 0.00 0.00 99 1020.1
20260905030224 65 50 1.0 2.0 0.00 0.00 0.00 99 1020.2
20260905030124 65 49 1.0 2.0 0.00 0.00 0.00 99 1020.3
20260905030024 65 45 1.0 2.0 0.00 0.00 0.00 99 1020.2
20260905025903 65 45 1.0 2.0 0.00 0.00 0.00 99 1020.3
20260905025803 65 44 1.0 2.0 0.00 0.00 0.00 99 1020.4
20260905025703 65 43 1.0 2.0 0.00 0.00 0.00 99 1020.4
20260905025603 65 44 1.0 2.0 0.00 0.00 0.00 99 1020.4
20260905025503 65 44 1.0 2.0 0.00 0.00 0.00 99 1020.3
20260905025402 65 40 1.0 1.0 0.00 0.00 0.00 99 1020.4
20260905025306 65 40 0.0 1.0 0.00 0.00 0.00 99 1020.5
20260905025203 65 39 0.0 1.0 0.00 0.00 0.00 99 1020.2
20260905025102 65 40 0.0 1.0 0.00 0.00 0.00 99 1020.4
20260905025003 65 39 0.0 1.0 0.00 0.00 0.00 99 1020.1
20260905024903 65 38 0.0 1.0 0.00 0.00 0.00 99 1020.3
20260905024803 65 0 0.0 0.0 0.00 0.00 0.00 99 1020.4
20260905024724 65 0 0.0 0.0 0.00 0.00 0.00 99 1020.2
20260905024603 65 0 0.0 0.0 0.00 0.00 0.00 99 1020.5
20260905024503 65 37 0.0 1.0 0.00 0.00 0.00 99 1020.3
20260905024403 65 37 0.0 1.0 0.00 0.00 0.00 99 1020.3
20260905024302 65 37 0.0 1.0 0.00 0.00 0.00 99 1020.6
20260905024203 65 37 0.0 1.0 0.00 0.00 0.00 99 1020.5
20260905024103 65 36 0.0 1.0 0.00 0.00 0.00 99 1020.6
20260905024003 65 35 0.0 1.0 0.00 0.00 0.00 99 1020.4
20260905023924 65 35 0.0 1.0 0.00 0.00 0.00 99 1020.7
20260905023824 65 34 0.0 1.0 0.00 0.00 0.00 99 1020.6
20260905023703 65 33 0.0 1.0 0.00 0.00 0.00 99 1020.7
20260905023603 65 32 1.0 1.0 0.00 0.00 0.00 99 1020.6
20260905023503 65 31 1.0 1.0 0.00 0.00 0.00 99 1020.8
20260905023402 65 29 1.0 1.0 0.00 0.00 0.00 99 1020.9
20260905023303 65 28 1.0 1.0 0.00 0.00 0.00 99 1020.6
20260905023203 65 27 1.0 1.0 0.00 0.00 0.00 99 1020.8
20260905023103 65 27 1.0 1.0 0.00 0.00 0.00 99 1020.8
20260905023003 65 26 1.0 1.0 0.00 0.00 0.00 99 1020.7
20260905022903 65 26 1.0 1.0 0.00 0.00 0.00 99 1020.9
20260905022803 65 25 1.0 1.0 0.00 0.00 0.00 99 1020.8
20260905022703 65 25 0.0 1.0 0.00 0.00 0.00 99 1020.9
20260905022603 65 25 0.0 1.0 0.00 0.00 0.00 99 1020.9
20260905022503 65 25 0.0 1.0 0.00 0.00 0.00 99 1020.9
20260905022403 65 25 0.0 1.0 0.00 0.00 0.00 99 1020.8
20260905022306 65 25 0.0 1.0 0.00 0.00 0.00 99 1020.9
20260905022203 65 25 0.0 1.0 0.00 0.00 0.00 99 1020.8
20260905022103 65 25 0.0 1.0 0.00 0.00 0.00 99 1021.0
20260905022003 65 25 0.0 1.0 0.00 0.00 0.00 99 1020.9
20260905021903 65 25 0.0 1.0 0.00 0.00 0.00 99 1020.9
20260905021802 65 25 0.0 1.0 0.00 0.00 0.00 99 1021.1
20260905021703 65 25 0.0 1.0 0.00 0.00 0.00 99 1020.9
20260905021603 65 25 0.0 1.0 0.00 0.00 0.00 99 1021.1
20260905021503 65 25 0.0 1.0 0.00 0.00 0.00 99 1021.0
20260905021424 65 25 0.0 1.0 0.00 0.00 0.00 99 1021.0
20260905021303 65 25 0.0 1.0 0.00 0.00 0.00 99 1020.9
20260905021203 65 25 0.0 1.0 0.00 0.00 0.00 99 1021.0
20260905021103 65 24 0.0 1.0 0.00 0.00 0.00 99 1021.0
20260905021003 65 24 0.0 1.0 0.00 0.00 0.00 99 1021.0
20260905020903 65 24 0.0 1.0 0.00 0.00 0.00 99 1021.0
20260905020803 65 24 0.0 1.0 0.00 0.00 0.00 99 1020.9
20260905020702 65 24 0.0 1.0 0.00 0.00 0.00 99 1021.0
20260905020603 65 24 0.0 1.0 0.00 0.00 0.00 99 1020.9
20260905020503 65 24 0.0 1.0 0.00 0.00 0.00 99 1020.8
20260905020403 65 24 0.0 1.0 0.00 0.00 0.00 99 1020.9
20260905020303 65 24 0.0 1.0 0.00 0.00 0.00 99 1020.9
20260905020203 65 0 0.0 0.0 0.00 0.00 0.00 99 1020.8
20260905020003 65 0 0.0 0.0 0.00 0.00 0.00 99 1021.0
20260905015903 65 0 0.0 0.0 0.00 0.00 0.00 99 1021.0
20260905015802 65 0 0.0 0.0 0.00 0.00 0.00 99 1021.0
20260905015703 65 25 0.0 1.0 0.00 0.00 0.00 99 1021.0
20260905015603 65 25 0.0 1.0 0.00 0.00 0.00 99 1020.9
20260905015503 65 25 0.0 1.0 0.00 0.00 0.00 99 1021.0
20260905015403 65 25 0.0 1.0 0.00 0.00 0.00 99 1021.0
20260905015306 65 25 0.0 1.0 0.00 0.00 0.00 99 1021.0
20260905015203 65 25 0.0 1.0 0.00 0.00 0.00 99 1021.0
20260905015102 65 25 0.0 1.0 0.00 0.00 0.00 99 1021.2
20260905015003 65 25 0.0 1.0 0.00 0.00 0.00 99 1021.1
20260905014924 65 25 0.0 1.0 0.00 0.00 0.00 98 1021.2
20260905014824 65 25 0.0 1.0 0.00 0.00 0.00 98 1021.3
20260905014724 65 25 0.0 1.0 0.00 0.00 0.00 98 1021.2
20260905014624 65 25 0.0 1.0 0.00 0.00 0.00 98 1021.1
20260905014502 65 25 0.0 1.0 0.00 0.00 0.00 98 1021.3
20260905014403 65 25 0.0 1.0 0.00 0.00 0.00 98 1021.3
20260905014303 65 24 0.0 1.0 0.00 0.00 0.00 98 1021.2
20260905014203 65 24 0.0 1.0 0.00 0.00 0.00 98 1021.3
20260905014124 65 24 0.0 1.0 0.00 0.00 0.00 98 1021.3
20260905014003 65 24 0.0 1.0 0.00 0.00 0.00 98 1021.3
20260905013903 65 24 0.0 1.0 0.00 0.00 0.00 98 1021.3
20260905013802 65 24 0.0 1.0 0.00 0.00 0.00 98 1021.1
20260905013702 65 23 0.0 1.0 0.00 0.00 0.00 98 1021.2
20260905013624 65 23 0.0 1.0 0.00 0.00 0.00 98 1021.2
20260905013524 65 23 0.0 1.0 0.00 0.00 0.00 98 1021.0
20260905013403 65 22 0.0 1.0 0.00 0.00 0.00 98 1021.3
20260905013303 65 21 0.0 1.0 0.00 0.00 0.00 98 1021.1
20260905013203 65 21 0.0 1.0 0.00 0.00 0.00 98 1021.4
20260905013124 65 20 0.0 1.0 0.00 0.00 0.00 98 1021.3
20260905013003 65 20 0.0 1.0 0.00 0.00 0.00 98 1021.5
20260905012924 65 20 0.0 1.0 0.00 0.00 0.00 98 1021.3
20260905012803 65 18 0.0 1.0 0.00 0.00 0.00 98 1021.5
20260905012703 65 16 0.0 1.0 0.00 0.00 0.00 98 1021.2
20260905012603 65 14 0.0 1.0 0.00 0.00 0.00 98 1021.4
20260905012503 65 13 0.0 1.0 0.00 0.00 0.00 98 1021.2
20260905012403 65 11 0.0 1.0 0.00 0.00 0.00 98 1021.2
20260905012324 65 11 0.0 1.0 0.00 0.00 0.00 98 1021.4
20260905012203 65 10 0.0 1.0 0.00 0.00 0.00 98 1021.4
20260905012103 65 10 0.0 1.0 0.00 0.00 0.00 98 1021.3
20260905012003 65 10 0.0 1.0 0.00 0.00 0.00 98 1021.3
20260905011903 65 10 0.0 1.0 0.00 0.00 0.00 98 1021.3
20260905011803 65 13 0.0 1.0 0.00 0.00 0.00 98 1021.3
20260905011703 65 14 0.0 1.0 0.00 0.00 0.00 98 1021.1
20260905011603 65 15 0.0 1.0 0.00 0.00 0.00 98 1021.3
20260905011503 65 18 0.0 1.0 0.00 0.00 0.00 98 1021.3
20260905011403 65 22 0.0 1.0 0.00 0.00 0.00 98 1021.2
20260905011324 65 20 0.0 1.0 0.00 0.00 0.00 98 1021.3
20260905011203 65 21 0.0 1.0 0.00 0.00 0.00 98 1021.4
20260905011103 65 21 0.0 1.0 0.00 0.00 0.00 98 1021.4
20260905011003 65 21 0.0 1.0 0.00 0.00 0.00 98 1021.2
20260905010903 65 21 0.0 1.0 0.00 0.00 0.00 97 1021.4
20260905010803 65 19 0.0 1.0 0.00 0.00 0.00 97 1021.5
20260905010724 65 19 0.0 1.0 0.00 0.00 0.00 97 1021.5
20260905010603 65 19 0.0 1.0 0.00 0.00 0.00 97 1021.5
20260905010503 66 18 0.0 1.0 0.00 0.00 0.00 97 1021.5
20260905010403 66 13 0.0 1.0 0.00 0.00 0.00 97 1021.5
20260905010324 66 12 0.0 1.0 0.00 0.00 0.00 97 1021.4
20260905010224 66 12 0.0 1.0 0.00 0.00 0.00 97 1021.7
20260905010003 66 6 0.0 1.0 0.00 0.00 0.00 97 1021.6
20260905005924 66 4 0.0 1.0 0.00 0.00 0.00 97 1021.5
20260905005803 66 4 0.0 1.0 0.00 0.00 0.00 97 1021.6
20260905005703 66 3 0.0 1.0 0.00 0.00 0.00 97 1021.5
20260905005603 66 3 0.0 1.0 0.00 0.00 0.00 97 1021.5
20260905005503 66 2 0.0 1.0 0.00 0.00 0.00 97 1021.4
20260905005403 66 1 0.0 1.0 0.00 0.00 0.00 97 1021.6
20260905005306 66 360 0.0 1.0 0.00 0.00 0.00 97 1021.5
20260905005203 66 1 0.0 1.0 0.00 0.00 0.00 97 1021.6
20260905005124 66 360 0.0 1.0 0.00 0.00 0.00 97 1021.5
20260905005003 66 360 0.0 1.0 0.00 0.00 0.00 97 1021.6
20260905004903 66 360 1.0 1.0 0.00 0.00 0.00 97 1021.7
20260905004803 66 358 1.0 1.0 0.00 0.00 0.00 97 1021.6
20260905004703 66 358 1.0 1.0 0.00 0.00 0.00 97 1021.7
20260905004603 66 358 1.0 1.0 0.00 0.00 0.00 97 1021.6
20260905004524 66 358 1.0 1.0 0.00 0.00 0.00 97 1021.6
20260905004403 66 359 1.0 1.0 0.00 0.00 0.00 97 1021.5
20260905004303 66 358 1.0 2.0 0.00 0.00 0.00 97 1021.6
20260905004203 66 358 1.0 2.0 0.00 0.00 0.00 97 1021.4
20260905004103 66 358 1.0 2.0 0.00 0.00 0.00 97 1021.6
20260905004003 66 358 1.0 3.0 0.00 0.00 0.00 97 1021.6
20260905003903 66 358 1.0 3.0 0.00 0.00 0.00 97 1021.6
20260905003803 66 358 1.0 3.0 0.00 0.00 0.00 97 1021.7
20260905003703 66 359 1.0 3.0 0.00 0.00 0.00 97 1021.6
20260905003624 66 358 2.0 3.0 0.00 0.00 0.00 97 1021.6
20260905003503 66 358 2.0 3.0 0.00 0.00 0.00 97 1021.8
20260905003403 66 358 2.0 3.0 0.00 0.00 0.00 97 1021.6
20260905003303 66 358 2.0 3.0 0.00 0.00 0.00 97 1021.5
20260905003203 66 359 2.0 3.0 0.00 0.00 0.00 97 1021.4
20260905003103 66 359 1.0 3.0 0.00 0.00 0.00 98 1021.6
20260905003024 66 359 1.0 3.0 0.00 0.00 0.00 98 1021.5
20260905002903 66 360 1.0 3.0 0.00 0.00 0.00 98 1021.6
20260905002803 66 359 1.0 3.0 0.00 0.00 0.00 98 1021.6
20260905002703 66 360 1.0 2.0 0.00 0.00 0.00 98 1021.6
20260905002603 66 1 1.0 2.0 0.00 0.00 0.00 98 1021.8
20260905002524 66 2 1.0 2.0 0.00 0.00 0.00 98 1021.9
20260905002424 66 3 0.0 2.0 0.00 0.00 0.00 98 1022.0
20260905002324 66 3 0.0 2.0 0.00 0.00 0.00 98 1021.9
20260905002203 66 2 0.0 2.0 0.00 0.00 0.00 98 1022.0
20260905002103 66 2 0.0 2.0 0.00 0.00 0.00 98 1021.9
20260905002003 66 359 0.0 2.0 0.00 0.00 0.00 98 1022.0
20260905001903 66 356 0.0 1.0 0.00 0.00 0.00 98 1022.0
20260905001803 66 356 0.0 1.0 0.00 0.00 0.00 98 1022.1
20260905001703 66 356 0.0 1.0 0.00 0.00 0.00 98 1022.1
20260905001603 66 356 0.0 1.0 0.00 0.00 0.00 98 1021.9
20260905001503 66 356 0.0 1.0 0.00 0.00 0.00 98 1022.1
20260905001403 66 356 0.0 1.0 0.00 0.00 0.00 98 1022.1
20260905001324 66 356 0.0 1.0 0.00 0.00 0.00 98 1022.1
20260905001203 66 355 0.0 1.0 0.00 0.00 0.00 98 1022.4
20260905001103 66 356 0.0 1.0 0.00 0.00 0.00 98 1022.1
20260905001003 66 355 0.0 1.0 0.00 0.00 0.00 98 1022.3
20260905000903 66 355 0.0 1.0 0.00 0.00 0.00 98 1022.3
20260905000803 65 355 0.0 1.0 0.00 0.00 0.00 98 1022.2
20260905000703 66 355 0.0 1.0 0.00 0.00 0.00 98 1022.3
20260905000603 66 355 0.0 1.0 0.00 0.00 0.00 98 1022.3
20260905000524 66 356 1.0 1.0 0.00 0.00 0.00 98 1022.3
20260905000403 66 356 1.0 2.0 0.00 0.00 0.00 98 1022.2
20260905000303 66 357 1.0 2.0 0.00 0.00 0.00 98 1022.2
20260905000204 66 358 1.0 2.0 0.00 0.00 0.00 98 1022.3
20260905000124 66 359 1.0 2.0 0.00 0.00 0.00 98 1022.0
20260905000003 66 360 1.0 2.0 0.00 0.00 0.00 98 1022.0
20260904235903 66 360 1.0 2.0 0.00 0.00 0.00 98 1022.1
20260904235824 66 360 1.0 2.0 0.00 0.00 0.00 98 1022.1
20260904235703 66 1 1.0 2.0 0.00 0.00 0.00 98 1022.1
20260904235624 66 1 1.0 2.0 0.00 0.00 0.00 98 1021.9
20260904235503 66 1 1.0 2.0 0.00 0.00 0.00 98 1022.1
20260904235403 66 2 1.0 2.0 0.00 0.00 0.00 98 1022.2
20260904235306 66 4 0.0 2.0 0.00 0.00 0.00 98 1022.2
20260904235203 66 4 0.0 1.0 0.00 0.00 0.00 98 1022.3
20260904235103 66 4 0.0 1.0 0.00 0.00 0.00 98 1022.4
20260904235003 66 4 0.0 1.0 0.00 0.00 0.00 98 1022.6
20260904234924 66 4 0.0 1.0 0.00 0.00 0.00 98 1022.6
20260904234803 66 0 0.0 0.0 0.00 0.00 0.00 98 1022.3
20260904234703 66 0 0.0 0.0 0.00 0.00 0.00 98 1022.6
20260904234603 66 0 0.0 0.0 0.00 0.00 0.00 98 1022.4
20260904234503 66 0 0.0 0.0 0.00 0.00 0.00 98 1022.5
20260904234403 66 4 0.0 1.0 0.00 0.00 0.00 98 1022.5
20260904234303 66 4 0.0 1.0 0.00 0.00 0.00 98 1022.5
20260904234203 66 4 0.0 1.0 0.00 0.00 0.00 98 1022.5
20260904234103 66 4 0.0 1.0 0.00 0.00 0.00 98 1022.6
20260904234003 66 4 0.0 1.0 0.00 0.00 0.00 98 1022.6
20260904233924 66 4 0.0 1.0 0.00 0.00 0.00 98 1022.5
20260904233803 66 4 0.0 1.0 0.00 0.00 0.00 98 1022.6
20260904233703 66 4 0.0 1.0 0.00 0.00 0.00 98 1022.7
20260904233603 66 4 0.0 1.0 0.00 0.00 0.00 98 1022.4
20260904233503 66 4 0.0 1.0 0.00 0.00 0.00 98 1022.6
20260904233403 66 4 0.0 1.0 0.00 0.00 0.00 98 1022.4
20260904233324 66 4 0.0 1.0 0.00 0.00 0.00 98 1022.6
20260904233203 66 4 0.0 1.0 0.00 0.00 0.00 98 1022.4
20260904233103 66 4 0.0 1.0 0.00 0.00 0.00 98 1022.6
20260904233003 66 4 0.0 1.0 0.00 0.00 0.00 98 1022.6
20260904232924 66 5 0.0 1.0 0.00 0.00 0.00 98 1022.5
20260904232803 66 0 0.0 0.0 0.00 0.00 0.00 98 1022.4
20260904232703 66 0 0.0 0.0 0.00 0.00 0.00 98 1022.5
20260904232603 66 0 0.0 0.0 0.00 0.00 0.00 98 1022.5
20260904232524 65 0 0.0 0.0 0.00 0.00 0.00 98 1022.5
20260904232424 65 0 0.0 0.0 0.00 0.00 0.00 98 1022.6
20260904232306 65 0 0.0 0.0 0.00 0.00 0.00 98 1022.6
20260904232203 65 0 0.0 0.0 0.00 0.00 0.00 98 1022.7
20260904232103 65 0 0.0 0.0 0.00 0.00 0.00 98 1022.6
20260904232003 65 0 0.0 0.0 0.00 0.00 0.00 98 1022.5
20260904231903 65 0 0.0 0.0 0.00 0.00 0.00 98 1022.7
20260904231803 65 0 0.0 0.0 0.00 0.00 0.00 98 1022.7
20260904231703 65 0 0.0 0.0 0.00 0.00 0.00 98 1022.7
20260904231603 65 0 0.0 0.0 0.00 0.00 0.00 98 1022.6
20260904231503 65 0 0.0 0.0 0.00 0.00 0.00 98 1022.7
20260904231403 65 0 0.0 0.0 0.00 0.00 0.00 98 1022.7
20260904231303 65 5 0.0 1.0 0.00 0.00 0.00 97 1022.6
20260904231203 65 4 0.0 1.0 0.00 0.00 0.00 97 1022.8
20260904231103 65 4 0.0 1.0 0.00 0.00 0.00 97 1022.9
20260904231024 65 4 0.0 1.0 0.00 0.00 0.00 97 1023.0
20260904230903 65 4 0.0 1.0 0.00 0.00 0.00 97 1022.8
20260904230803 65 4 0.0 1.0 0.00 0.00 0.00 97 1022.7
20260904230703 65 4 0.0 1.0 0.00 0.00 0.00 97 1022.7
20260904230603 65 4 0.0 1.0 0.00 0.00 0.00 97 1022.9
20260904230503 65 4 0.0 1.0 0.00 0.00 0.00 97 1022.9
20260904230403 65 4 0.0 1.0 0.00 0.00 0.00 97 1022.7
20260904230303 65 4 0.0 1.0 0.00 0.00 0.00 97 1022.6
20260904230203 65 0 0.0 0.0 0.00 0.00 0.00 97 1022.8
20260904230003 65 0 0.0 0.0 0.00 0.00 0.00 97 1022.7
20260904225924 65 0 0.0 0.0 0.00 0.00 0.00 97 1022.8
20260904225803 65 0 0.0 0.0 0.00 0.00 0.00 97 1022.8
20260904225703 65 0 0.0 0.0 0.00 0.00 0.00 97 1022.8
20260904225603 65 4 0.0 1.0 0.00 0.00 0.00 97 1022.8
20260904225503 65 4 0.0 1.0 0.00 0.00 0.00 97 1022.8
20260904225424 65 4 0.0 1.0 0.00 0.00 0.00 97 1022.8
20260904225305 65 3 0.0 1.0 0.00 0.00 0.00 97 1022.6
20260904225224 65 3 0.0 1.0 0.00 0.00 0.00 97 1022.7
20260904225103 65 3 0.0 1.0 0.00 0.00 0.00 97 1022.8
20260904225003 65 3 0.0 1.0 0.00 0.00 0.00 97 1022.8
20260904224903 65 3 0.0 1.0 0.00 0.00 0.00 97 1022.8
20260904224803 65 3 0.0 1.0 0.00 0.00 0.00 97 1022.9
20260904224724 65 3 0.0 1.0 0.00 0.00 0.00 97 1022.8
20260904224624 66 3 0.0 1.0 0.00 0.00 0.00 97 1022.7
20260904224503 66 3 0.0 1.0 0.00 0.00 0.00 97 1022.8
20260904224424 66 2 0.0 1.0 0.00 0.00 0.00 97 1022.7
20260904224303 65 2 0.0 1.0 0.00 0.00 0.00 97 1022.7
20260904224203 65 0 0.0 0.0 0.00 0.00 0.00 97 1022.8
20260904224103 65 0 0.0 0.0 0.00 0.00 0.00 96 1022.7
20260904224003 65 0 0.0 0.0 0.00 0.00 0.00 96 1022.5
20260904223903 65 0 0.0 0.0 0.00 0.00 0.00 96 1022.8
20260904223824 65 0 0.0 0.0 0.00 0.00 0.00 96 1022.9
20260904223703 66 0 0.0 0.0 0.00 0.00 0.00 96 1022.7
20260904223603 66 0 0.0 0.0 0.00 0.00 0.00 96 1022.8
20260904223503 66 0 0.0 0.0 0.00 0.00 0.00 96 1022.6
20260904223403 66 0 0.0 0.0 0.00 0.00 0.00 96 1022.6
20260904223324 66 0 0.0 0.0 0.00 0.00 0.00 96 1022.7
20260904223203 66 0 0.0 0.0 0.00 0.00 0.00 96 1022.8
20260904223103 66 0 0.0 0.0 0.00 0.00 0.00 96 1022.7
20260904223003 66 0 0.0 0.0 0.00 0.00 0.00 96 1022.8
20260904222924 66 0 0.0 0.0 0.00 0.00 0.00 96 1022.7
20260904222803 66 0 0.0 0.0 0.00 0.00 0.00 96 1022.7
20260904222724 66 0 0.0 0.0 0.00 0.00 0.00 96 1022.7
20260904222603 66 0 0.0 0.0 0.00 0.00 0.00 96 1022.7
20260904222503 66 0 0.0 0.0 0.00 0.00 0.00 96 1022.5
20260904222403 66 0 0.0 0.0 0.00 0.00 0.00 96 1022.6
20260904222306 66 0 0.0 0.0 0.00 0.00 0.00 96 1022.6
20260904222203 66 0 0.0 0.0 0.00 0.00 0.00 96 1022.5
20260904222103 66 0 0.0 0.0 0.00 0.00 0.00 96 1022.6
20260904222003 66 0 0.0 0.0 0.00 0.00 0.00 96 1022.6
20260904221903 66 0 0.0 0.0 0.00 0.00 0.00 96 1022.5
20260904221803 66 0 0.0 0.0 0.00 0.00 0.00 96 1022.6
20260904221703 66 0 0.0 0.0 0.00 0.00 0.00 96 1022.7
20260904221603 66 0 0.0 0.0 0.00 0.00 0.00 96 1022.7
20260904221503 66 0 0.0 0.0 0.00 0.00 0.00 96 1022.7
20260904221403 66 0 0.0 0.0 0.00 0.00 0.00 96 1022.8
20260904221303 66 0 0.0 0.0 0.00 0.00 0.00 96 1022.6
20260904221224 66 0 0.0 0.0 0.00 0.00 0.00 96 1022.8
20260904221103 66 0 0.0 0.0 0.00 0.00 0.00 96 1022.8
20260904221003 66 0 0.0 0.0 0.00 0.00 0.00 96 1022.7
20260904220903 66 0 0.0 0.0 0.00 0.00 0.00 96 1022.8
20260904220803 66 1 0.0 1.0 0.00 0.00 0.00 96 1022.8
20260904220703 67 1 0.0 1.0 0.00 0.00 0.00 96 1022.9
20260904220603 67 1 0.0 1.0 0.00 0.00 0.00 95 1023.0
20260904220503 66 1 0.0 1.0 0.00 0.00 0.00 95 1022.6
20260904220403 66 1 1.0 1.0 0.00 0.00 0.00 95 1022.8
20260904220303 66 1 1.0 1.0 0.00 0.00 0.00 95 1022.8
20260904220203 66 1 1.0 1.0 0.00 0.00 0.00 95 1022.9
20260904220024 67 1 1.0 1.0 0.00 0.00 0.00 95 1022.6
20260904215903 67 1 1.0 1.0 0.00 0.00 0.00 95 1022.7
20260904215803 67 1 1.0 1.0 0.00 0.00 0.00 95 1022.7
20260904215703 67 1 1.0 1.0 0.00 0.00 0.00 95 1022.7
20260904215603 67 1 1.0 1.0 0.00 0.00 0.00 95 1022.5
20260904215503 67 1 1.0 1.0 0.00 0.00 0.00 95 1022.6
20260904215403 67 1 1.0 1.0 0.00 0.00 0.00 95 1022.7
20260904215305 67 2 0.0 1.0 0.00 0.00 0.00 95 1022.6
20260904215203 67 6 0.0 1.0 0.00 0.00 0.00 95 1022.8
20260904215103 67 9 0.0 1.0 0.00 0.00 0.00 95 1022.4
20260904215003 67 10 0.0 1.0 0.00 0.00 0.00 95 1022.7
20260904214903 67 11 0.0 1.0 0.00 0.00 0.00 95 1022.4
20260904214824 67 12 0.0 1.0 0.00 0.00 0.00 95 1022.7
20260904214703 67 12 0.0 1.0 0.00 0.00 0.00 95 1022.6
20260904214603 67 14 0.0 1.0 0.00 0.00 0.00 95 1022.7
20260904214503 67 16 0.0 1.0 0.00 0.00 0.00 95 1022.5
20260904214403 67 16 1.0 1.0 0.00 0.00 0.00 95 1022.6
20260904214303 67 16 1.0 1.0 0.00 0.00 0.00 95 1022.5
20260904214203 67 16 1.0 1.0 0.00 0.00 0.00 95 1022.5
20260904214103 67 17 1.0 1.0 0.00 0.00 0.00 95 1022.6
20260904214003 67 17 1.0 1.0 0.00 0.00 0.00 95 1022.7
20260904213903 67 17 1.0 1.0 0.00 0.00 0.00 95 1022.4
20260904213803 67 17 1.0 1.0 0.00 0.00 0.00 95 1022.5
20260904213703 67 17 1.0 1.0 0.00 0.00 0.00 95 1022.5
20260904213603 67 17 1.0 1.0 0.00 0.00 0.00 95 1022.4
20260904213503 67 17 1.0 1.0 0.00 0.00 0.00 95 1022.5
20260904213403 67 17 0.0 1.0 0.00 0.00 0.00 95 1022.5
20260904213303 67 17 0.0 1.0 0.00 0.00 0.00 95 1022.4
20260904213203 67 17 0.0 1.0 0.00 0.00 0.00 95 1022.5
20260904213103 66 17 0.0 1.0 0.00 0.00 0.00 95 1022.5
20260904213003 66 17 0.0 1.0 0.00 0.00 0.00 95 1022.5
20260904212903 66 17 0.0 1.0 0.00 0.00 0.00 95 1022.5
20260904212803 66 0 0.0 0.0 0.00 0.00 0.00 95 1022.5
20260904212724 66 0 0.0 0.0 0.00 0.00 0.00 95 1022.6
20260904212603 66 0 0.0 0.0 0.00 0.00 0.00 95 1022.5
20260904212503 66 0 0.0 0.0 0.00 0.00 0.00 95 1022.7
20260904212403 66 0 0.0 0.0 0.00 0.00 0.00 95 1022.8
20260904212306 66 0 0.0 0.0 0.00 0.00 0.00 95 1022.8
20260904212203 66 0 0.0 0.0 0.00 0.00 0.00 95 1022.7
20260904212103 66 0 0.0 0.0 0.00 0.00 0.00 95 1022.8
20260904212003 66 0 0.0 0.0 0.00 0.00 0.00 95 1022.8
20260904211903 66 0 0.0 0.0 0.00 0.00 0.00 95 1022.6
20260904211803 66 0 0.0 0.0 0.00 0.00 0.00 95 1022.7
20260904211724 66 0 0.0 0.0 0.00 0.00 0.00 95 1022.6
20260904211603 66 0 0.0 0.0 0.00 0.00 0.00 95 1022.7
20260904211503 66 0 0.0 0.0 0.00 0.00 0.00 95 1022.8
20260904211403 66 0 0.0 0.0 0.00 0.00 0.00 95 1022.8
20260904211303 67 0 0.0 0.0 0.00 0.00 0.00 95 1022.8
20260904211204 67 0 0.0 0.0 0.00 0.00 0.00 95 1022.8
20260904211103 67 17 0.0 1.0 0.00 0.00 0.00 95 1022.8
20260904211003 67 17 0.0 1.0 0.00 0.00 0.00 95 1023.0
20260904210903 67 17 0.0 1.0 0.00 0.00 0.00 95 1022.8
20260904210803 67 17 0.0 1.0 0.00 0.00 0.00 95 1022.8
20260904210703 67 17 0.0 1.0 0.00 0.00 0.00 95 1022.9
20260904210603 67 17 0.0 1.0 0.00 0.00 0.00 95 1022.8
20260904210503 67 17 0.0 1.0 0.00 0.00 0.00 95 1022.7
20260904210403 67 17 0.0 1.0 0.00 0.00 0.00 95 1023.0
20260904210303 67 17 0.0 1.0 0.00 0.00 0.00 95 1022.8
20260904210203 67 17 0.0 1.0 0.00 0.00 0.00 95 1023.1
20260904210103 67 0 0.0 0.0 0.00 0.00 0.00 95 1022.9
20260904210024 67 0 0.0 0.0 0.00 0.00 0.00 95 1022.8
20260904205903 67 0 0.0 0.0 0.00 0.00 0.00 95 1022.9
20260904205803 67 0 0.0 0.0 0.00 0.00 0.00 95 1023.0
20260904205703 67 0 0.0 0.0 0.00 0.00 0.00 95 1023.1
20260904205603 67 0 0.0 0.0 0.00 0.00 0.00 95 1023.1
20260904205503 67 0 0.0 0.0 0.00 0.00 0.00 95 1023.2
20260904205424 67 0 0.0 0.0 0.00 0.00 0.00 95 1022.9
20260904205305 67 0 0.0 0.0 0.00 0.00 0.00 95 1023.0
20260904205203 67 0 0.0 0.0 0.00 0.00 0.00 95 1023.0
20260904205103 67 0 0.0 0.0 0.00 0.00 0.00 95 1022.9
20260904205003 67 0 0.0 0.0 0.00 0.00 0.00 95 1022.9
20260904204903 67 0 0.0 0.0 0.00 0.00 0.00 95 1022.8
20260904204803 67 0 0.0 0.0 0.00 0.00 0.00 95 1022.9
20260904204724 67 0 0.0 0.0 0.00 0.00 0.00 95 1023.0
20260904204603 67 17 0.0 1.0 0.00 0.00 0.00 95 1022.9
20260904204503 67 17 0.0 1.0 0.00 0.00 0.00 95 1022.8
20260904204424 67 17 0.0 1.0 0.00 0.00 0.00 95 1022.9
20260904204303 67 17 0.0 1.0 0.00 0.00 0.00 95 1023.0
20260904204203 67 18 0.0 1.0 0.00 0.00 0.00 95 1022.7
20260904204103 67 18 0.0 1.0 0.00 0.00 0.00 95 1022.9
20260904204003 67 18 0.0 1.0 0.00 0.00 0.00 95 1023.1
20260904203903 67 18 0.0 1.0 0.00 0.00 0.00 95 1022.8
20260904203803 67 18 0.0 1.0 0.00 0.00 0.00 95 1023.0
20260904203703 67 18 0.0 1.0 0.00 0.00 0.00 95 1023.0
20260904203603 67 18 0.0 1.0 0.00 0.00 0.00 95 1023.0
20260904203503 67 20 0.0 1.0 0.00 0.00 0.00 95 1022.9
20260904203403 67 20 0.0 1.0 0.00 0.00 0.00 95 1022.9
20260904203303 67 20 0.0 1.0 0.00 0.00 0.00 95 1022.9
20260904203203 67 0 0.0 0.0 0.00 0.00 0.00 95 1023.0
20260904203103 67 0 0.0 0.0 0.00 0.00 0.00 95 1023.0
20260904203003 67 0 0.0 0.0 0.00 0.00 0.00 95 1022.9
20260904202903 67 0 0.0 0.0 0.00 0.00 0.00 95 1022.8
20260904202824 67 0 0.0 0.0 0.00 0.00 0.00 95 1022.7
20260904202703 67 0 0.0 0.0 0.00 0.00 0.00 94 1022.8
20260904202603 67 0 0.0 0.0 0.00 0.00 0.00 94 1022.8
20260904202503 67 0 0.0 0.0 0.00 0.00 0.00 94 1022.8
20260904202403 67 0 0.0 0.0 0.00 0.00 0.00 94 1022.8
20260904202305 67 0 0.0 0.0 0.00 0.00 0.00 94 1022.8
20260904202203 67 0 0.0 0.0 0.00 0.00 0.00 94 1022.8
20260904202103 67 0 0.0 0.0 0.00 0.00 0.00 94 1022.6
20260904202025 67 0 0.0 0.0 0.00 0.00 0.00 94 1022.8
20260904201903 67 0 0.0 0.0 0.00 0.00 0.00 94 1022.7
20260904201824 67 0 0.0 0.0 0.00 0.00 0.00 94 1022.7
20260904201703 67 0 0.0 0.0 0.00 0.00 0.00 94 1022.7
20260904201603 67 0 0.0 0.0 0.00 0.00 0.00 94 1022.7
20260904201503 67 0 0.0 0.0 0.00 0.00 0.00 94 1022.8
20260904201403 67 0 0.0 0.0 0.00 0.00 0.00 94 1022.6
20260904201304 67 0 0.0 0.0 0.00 0.00 0.00 94 1022.7
20260904201203 67 0 0.0 0.0 0.00 0.00 0.00 94 1022.8
20260904201103 67 0 0.0 0.0 0.00 0.00 0.00 94 1022.9
20260904201003 67 24 0.0 1.0 0.00 0.00 0.00 94 1022.7
20260904200903 67 22 0.0 1.0 0.00 0.00 0.00 94 1022.6
20260904200803 67 19 0.0 1.0 0.00 0.00 0.00 94 1022.7
20260904200703 67 19 0.0 1.0 0.00 0.00 0.00 94 1022.7
20260904200624 67 17 0.0 1.0 0.00 0.00 0.00 94 1022.7
20260904200503 67 17 0.0 1.0 0.00 0.00 0.00 94 1022.5
20260904200403 67 14 0.0 1.0 0.00 0.00 0.00 94 1022.8
20260904200324 67 14 0.0 1.0 0.00 0.00 0.00 94 1022.6
20260904200224 67 14 0.0 1.0 0.00 0.00 0.00 94 1022.6
20260904200104 67 12 0.0 1.0 0.00 0.00 0.00 94 1022.6
20260904200003 67 7 0.0 1.0 0.00 0.00 0.00 94 1022.7
20260904195903 67 4 0.0 1.0 0.00 0.00 0.00 94 1022.8
20260904195804 67 3 0.0 1.0 0.00 0.00 0.00 94 1022.6
20260904195703 67 3 0.0 1.0 0.00 0.00 0.00 94 1022.8
20260904195603 67 1 0.0 1.0 0.00 0.00 0.00 94 1022.7
20260904195504 67 1 0.0 1.0 0.00 0.00 0.00 93 1022.6
20260904195403 67 1 0.0 1.0 0.00 0.00 0.00 93 1022.6
20260904195329 67 1 0.0 1.0 0.00 0.00 0.00 93 1022.8
20260904195203 67 3 0.0 1.0 0.00 0.00 0.00 93 1022.8
20260904195103 67 4 0.0 1.0 0.00 0.00 0.00 93 1022.5
20260904195003 67 4 0.0 1.0 0.00 0.00 0.00 93 1022.7
20260904194903 68 5 0.0 1.0 0.00 0.00 0.00 93 1022.7
20260904194803 68 6 0.0 1.0 0.00 0.00 0.00 93 1022.8
20260904194704 68 6 0.0 1.0 0.00 0.00 0.00 93 1022.7
20260904194603 68 6 0.0 1.0 0.00 0.00 0.00 93 1022.6
20260904194503 68 6 0.0 1.0 0.00 0.00 0.00 93 1022.5
20260904194403 68 6 0.0 1.0 0.00 0.00 0.00 93 1022.6
20260904194303 68 6 0.0 1.0 0.00 0.00 0.00 93 1022.6
20260904194224 68 6 0.0 1.0 0.00 0.00 0.00 92 1022.5
20260904194103 68 6 0.0 1.0 0.00 0.00 0.00 92 1022.7
20260904194003 68 0 0.0 0.0 0.00 0.00 0.00 92 1022.5
20260904193903 68 0 0.0 0.0 0.00 0.00 0.00 92 1022.4
20260904193803 68 0 0.0 0.0 0.00 0.00 0.00 92 1022.3
20260904193703 68 0 0.0 0.0 0.00 0.00 0.00 92 1022.3
20260904193603 68 0 0.0 0.0 0.00 0.00 0.00 92 1022.4
20260904193503 68 0 0.0 0.0 0.00 0.00 0.00 92 1022.4
20260904193403 68 0 0.0 0.0 0.00 0.00 0.00 92 1022.4
20260904193303 68 0 0.0 0.0 0.00 0.00 0.00 92 1022.4
20260904193203 68 0 0.0 0.0 0.00 0.00 0.00 91 1022.3
20260904193103 68 0 0.0 0.0 0.00 0.00 0.00 91 1022.4
20260904193024 69 6 0.0 1.0 0.00 0.00 0.00 91 1022.5
20260904192903 69 6 0.0 1.0 0.00 0.00 0.00 91 1022.3
20260904192804 69 6 0.0 1.0 0.00 0.00 0.00 91 1022.4
20260904192703 69 6 0.0 1.0 0.00 0.00 0.00 91 1022.3
20260904192603 69 6 0.0 1.0 0.00 0.00 0.00 91 1022.3
20260904192503 69 6 0.0 1.0 0.00 0.00 0.00 91 1022.4
20260904192403 69 5 0.0 1.0 0.00 0.00 0.00 91 1022.4
20260904192306 69 5 0.0 1.0 0.00 0.00 0.00 91 1022.4
20260904192203 69 5 0.0 1.0 0.00 0.00 0.00 90 1022.3
20260904192103 69 5 0.0 1.0 0.00 0.00 0.00 90 1022.4
20260904192024 69 5 0.0 1.0 0.00 0.00 0.00 90 1022.3
20260904191903 69 5 0.0 1.0 0.00 0.00 0.00 90 1022.4
20260904191804 69 5 0.0 1.0 0.00 0.00 0.00 90 1022.4
20260904191703 69 5 0.0 1.0 0.00 0.00 0.00 90 1022.2
20260904191624 69 5 0.0 1.0 0.00 0.00 0.00 90 1022.4
20260904191524 69 5 0.0 1.0 0.00 0.00 0.00 90 1022.3
20260904191403 69 5 0.0 1.0 0.00 0.00 0.00 90 1022.5
20260904191304 69 5 0.0 1.0 0.00 0.00 0.00 89 1022.4
20260904191224 69 5 0.0 1.0 0.00 0.00 0.00 89 1022.3
20260904191103 69 5 0.0 1.0 0.00 0.00 0.00 89 1022.4
20260904191024 69 5 0.0 1.0 0.00 0.00 0.00 89 1022.3
20260904190924 69 359 0.0 1.0 0.00 0.00 0.00 89 1022.3
20260904190804 70 355 0.0 1.0 0.00 0.00 0.00 89 1022.3
20260904190703 70 350 0.0 2.0 0.00 0.00 0.00 89 1022.2
20260904190603 70 350 0.0 2.0 0.00 0.00 0.00 88 1022.2
20260904190504 70 328 1.0 3.0 0.00 0.00 0.00 88 1022.2
20260904190403 70 331 1.0 3.0 0.00 0.00 0.00 88 1022.2
20260904190324 70 333 1.0 3.0 0.00 0.00 0.00 88 1022.1
20260904190203 70 333 1.0 3.0 0.00 0.00 0.00 88 1022.2
20260904190003 70 330 1.0 3.0 0.00 0.00 0.00 88 1022.2
20260904185903 70 330 1.0 3.0 0.00 0.00 0.00 88 1022.4
20260904185803 70 328 1.0 3.0 0.00 0.00 0.00 88 1022.3
20260904185703 70 328 1.0 3.0 0.00 0.00 0.00 87 1022.5
20260904185603 70 329 1.0 3.0 0.00 0.00 0.00 87 1022.4
20260904185504 70 340 1.0 2.0 0.00 0.00 0.00 87 1022.3
20260904185403 70 341 1.0 2.0 0.00 0.00 0.00 87 1022.5
20260904185306 70 341 1.0 2.0 0.00 0.00 0.00 87 1022.5
20260904185203 70 339 1.0 2.0 0.00 0.00 0.00 87 1022.4
20260904185103 71 345 1.0 2.0 0.00 0.00 0.00 87 1022.6
20260904185024 71 345 1.0 2.0 0.00 0.00 0.00 87 1022.5
20260904184903 71 346 1.0 2.0 0.00 0.00 0.00 87 1022.4
20260904184803 71 346 0.0 2.0 0.00 0.00 0.00 87 1022.4
20260904184703 71 348 0.0 2.0 0.00 0.00 0.00 86 1022.4
20260904184603 71 346 0.0 2.0 0.00 0.00 0.00 86 1022.4
20260904184524 71 347 1.0 2.0 0.00 0.00 0.00 86 1022.3
20260904184424 71 346 1.0 2.0 0.00 0.00 0.00 86 1022.5
20260904184303 71 346 1.0 2.0 0.00 0.00 0.00 86 1022.5
20260904184203 71 346 1.0 2.0 0.00 0.00 0.00 86 1022.3
20260904184103 71 351 1.0 1.0 0.00 0.00 0.00 86 1022.4
20260904184024 71 351 0.0 1.0 0.00 0.00 0.00 86 1022.4
20260904183903 71 352 0.0 1.0 0.00 0.00 0.00 86 1022.4
20260904183824 71 352 0.0 1.0 0.00 0.00 0.00 86 1022.2
20260904183703 71 353 1.0 1.0 0.00 0.00 0.00 86 1022.3
20260904183603 71 355 1.0 1.0 0.00 0.00 0.00 86 1022.4
20260904183503 71 358 1.0 2.0 0.00 0.00 0.00 86 1022.2
20260904183403 71 2 1.0 2.0 0.00 0.00 0.00 86 1022.3
20260904183303 71 4 1.0 2.0 0.00 0.00 0.00 86 1022.3
20260904183203 71 6 1.0 2.0 0.00 0.00 0.00 86 1022.2
20260904183124 71 8 1.0 2.0 0.00 0.00 0.00 86 1022.4
20260904183003 71 8 1.0 2.0 0.00 0.00 0.00 86 1022.1
20260904182904 71 8 1.0 2.0 0.00 0.00 0.00 86 1022.2
20260904182803 71 9 1.0 2.0 0.00 0.00 0.00 86 1022.2
20260904182703 71 9 1.0 2.0 0.00 0.00 0.00 86 1022.1
20260904182603 71 9 2.0 2.0 0.00 0.00 0.00 86 1022.1
20260904182503 71 8 2.0 2.0 0.00 0.00 0.00 86 1022.2
20260904182424 71 8 2.0 2.0 0.00 0.00 0.00 86 1022.2
20260904182306 71 8 2.0 2.0 0.00 0.00 0.00 86 1022.0
20260904182203 71 7 1.0 2.0 0.00 0.00 0.00 86 1022.0
20260904182103 71 6 1.0 2.0 0.00 0.00 0.00 86 1022.0
20260904182003 71 5 1.0 2.0 0.00 0.00 0.00 86 1022.0
20260904181903 71 4 1.0 2.0 0.00 0.00 0.00 86 1022.0
20260904181803 71 3 1.0 2.0 0.00 0.00 0.00 86 1022.1
20260904181703 71 2 1.0 2.0 0.00 0.00 0.00 86 1022.0
20260904181603 72 1 1.0 2.0 0.00 0.00 0.00 85 1021.9
20260904181524 72 1 1.0 2.0 0.00 0.00 0.00 85 1022.0
20260904181424 72 2 0.0 1.0 0.00 0.00 0.00 85 1021.9
20260904181303 72 1 0.0 1.0 0.00 0.00 0.00 85 1022.0
20260904181203 72 2 0.0 1.0 0.00 0.00 0.00 85 1021.9
20260904181103 72 1 0.0 1.0 0.00 0.00 0.00 85 1022.0
20260904181003 72 359 0.0 1.0 0.00 0.00 0.00 85 1022.0
20260904180903 72 358 0.0 1.0 0.00 0.00 0.00 85 1022.0
20260904180803 72 358 1.0 1.0 0.00 0.00 0.00 85 1022.2
20260904180703 72 358 1.0 1.0 0.00 0.00 0.00 84 1022.0
20260904180603 72 357 1.0 1.0 0.00 0.00 0.00 84 1022.0
20260904180503 72 352 1.0 2.0 0.00 0.00 0.00 84 1022.0
20260904180424 72 352 1.0 2.0 0.00 0.00 0.00 84 1022.0
20260904180303 72 345 1.0 2.0 0.00 0.00 0.00 84 1022.0
20260904180203 72 340 1.0 2.0 0.00 0.00 0.00 84 1021.9
20260904180103 72 341 1.0 2.0 0.00 0.00 0.00 84 1022.0